Wetterdaten: Sonntag, 28.10.2018
Datum Zeit Temp. Aussen Temp. o. S. +5cm Feuchte Auss Luftdruck Regen Sonnenschein Regendauer Solar Windben Empfang
28.10.2018 00:00 5,9 C 4,4 C 4,4 C 94 % 1010,0 hPa 0,0 l/m 0 min 0 min 0 W/m 0,0 km/h (0 Bft) 97,87 %
28.10.2018 00:02 5,9 C 4,4 C 4,4 C 94 % 1010,0 hPa 0,0 l/m 0 min 0 min 0 W/m 0,0 km/h (0 Bft) 97,50 %
28.10.2018 00:04 5,8 C 4,4 C 4,4 C 94 % 1010,0 hPa 0,0 l/m 0 min 0 min 0 W/m 0,0 km/h (0 Bft) 98,00 %
28.10.2018 00:08 5,8 C 4,4 C 4,4 C 94 % 1010,0 hPa 0,0 l/m 0 min 0 min 0 W/m 3,2 km/h (1 Bft) 97,85 %
28.10.2018 00:10 5,7 C 4,4 C 4,4 C 94 % 1010,0 hPa 0,0 l/m 0 min 0 min 0 W/m 0,0 km/h (0 Bft) 97,96 %
28.10.2018 00:12 5,7 C 4,4 C 4,4 C 93 % 1010,0 hPa 0,0 l/m 0 min 0 min 0 W/m 3,2 km/h (1 Bft) 97,14 %
28.10.2018 00:14 5,7 C 4,4 C 4,4 C 93 % 1010,1 hPa 0,0 l/m 0 min 0 min 0 W/m 0,0 km/h (0 Bft) 97,87 %
28.10.2018 00:16 5,6 C 3,9 C 4,4 C 93 % 1010,1 hPa 0,0 l/m 0 min 0 min 0 W/m 0,0 km/h (0 Bft) 97,87 %
28.10.2018 00:18 5,6 C 3,9 C 4,4 C 94 % 1010,1 hPa 0,0 l/m 0 min 0 min 0 W/m 0,0 km/h (0 Bft) 97,87 %
28.10.2018 00:20 5,6 C 3,9 C 4,4 C 94 % 1010,1 hPa 0,0 l/m 0 min 0 min 0 W/m 0,0 km/h (0 Bft) 96,55 %
28.10.2018 00:22 5,6 C 4,4 C 4,4 C 94 % 1010,1 hPa 0,0 l/m 0 min 0 min 0 W/m 3,2 km/h (1 Bft) 97,14 %
28.10.2018 00:24 5,5 C 3,9 C 4,4 C 94 % 1010,1 hPa 0,0 l/m 0 min 0 min 0 W/m 0,0 km/h (0 Bft) 95,74 %
28.10.2018 00:26 5,5 C 4,4 C 4,4 C 94 % 1010,1 hPa 0,0 l/m 0 min 0 min 0 W/m 3,2 km/h (1 Bft) 95,74 %
28.10.2018 00:28 5,4 C 4,4 C 4,4 C 94 % 1010,2 hPa 0,0 l/m 0 min 0 min 0 W/m 6,4 km/h (2 Bft) 97,87 %
28.10.2018 00:30 5,4 C 4,4 C 4,4 C 94 % 1010,1 hPa 0,0 l/m 0 min 0 min 0 W/m 3,2 km/h (1 Bft) 97,83 %
28.10.2018 00:32 5,4 C 4,4 C 4,4 C 94 % 1010,2 hPa 0,0 l/m 0 min 0 min 0 W/m 3,2 km/h (1 Bft) 95,83 %
28.10.2018 00:34 5,4 C 4,4 C 4,4 C 94 % 1010,2 hPa 0,0 l/m 0 min 0 min 0 W/m 12,9 km/h (3 Bft) 97,87 %
28.10.2018 00:38 5,3 C 4,4 C 4,4 C 94 % 1010,3 hPa 0,0 l/m 0 min 0 min 0 W/m 6,4 km/h (2 Bft) 94,68 %
28.10.2018 00:40 5,3 C 4,4 C 4,4 C 94 % 1010,3 hPa 0,0 l/m 0 min 0 min 0 W/m 3,2 km/h (1 Bft) 97,87 %
28.10.2018 00:42 5,3 C 4,4 C 4,4 C 94 % 1010,3 hPa 0,0 l/m 0 min 0 min 0 W/m 9,7 km/h (2 Bft) 97,83 %
28.10.2018 00:44 5,3 C 4,4 C 4,4 C 94 % 1010,3 hPa 0,0 l/m 0 min 0 min 0 W/m 6,4 km/h (2 Bft) 95,74 %
28.10.2018 00:46 5,3 C 4,4 C 4,4 C 94 % 1010,3 hPa 0,0 l/m 0 min 0 min 0 W/m 6,4 km/h (2 Bft) 95,74 %
28.10.2018 00:48 5,3 C 4,4 C 4,4 C 94 % 1010,3 hPa 0,0 l/m 0 min 0 min 0 W/m 9,7 km/h (2 Bft) 100,00 %
28.10.2018 00:50 5,3 C 4,4 C 4,4 C 94 % 1010,3 hPa 0,0 l/m 0 min 0 min 0 W/m 6,4 km/h (2 Bft) 98,31 %
28.10.2018 00:52 5,3 C 4,4 C 4,4 C 94 % 1010,3 hPa 0,0 l/m 0 min 0 min 0 W/m 0,0 km/h (0 Bft) 97,14 %
28.10.2018 00:54 5,3 C 4,4 C 4,4 C 94 % 1010,3 hPa 0,0 l/m 0 min 0 min 0 W/m 0,0 km/h (0 Bft) 97,83 %
28.10.2018 00:56 5,3 C 4,4 C 4,4 C 94 % 1010,4 hPa 0,0 l/m 0 min 0 min 0 W/m 6,4 km/h (2 Bft) 97,87 %
28.10.2018 00:58 5,3 C 3,9 C 4,4 C 94 % 1010,4 hPa 0,0 l/m 0 min 0 min 0 W/m 0,0 km/h (0 Bft) 97,87 %
28.10.2018 01:00 5,3 C 3,9 C 4,4 C 94 % 1010,4 hPa 0,0 l/m 0 min 0 min 0 W/m 3,2 km/h (1 Bft) 97,87 %
28.10.2018 01:02 5,3 C 3,9 C 4,4 C 94 % 1010,4 hPa 0,0 l/m 0 min 0 min 0 W/m 0,0 km/h (0 Bft) 97,87 %
28.10.2018 01:04 5,3 C 3,9 C 4,4 C 94 % 1010,4 hPa 0,0 l/m 0 min 0 min 0 W/m 0,0 km/h (0 Bft) 97,87 %
28.10.2018 01:08 5,2 C 3,9 C 4,4 C 94 % 1010,4 hPa 0,0 l/m 0 min 0 min 0 W/m 6,4 km/h (2 Bft) 97,85 %
28.10.2018 01:10 5,2 C 3,9 C 4,4 C 94 % 1010,4 hPa 0,0 l/m 0 min 0 min 0 W/m 0,0 km/h (0 Bft) 97,87 %
28.10.2018 01:12 5,2 C 3,9 C 4,4 C 94 % 1010,4 hPa 0,0 l/m 0 min 0 min 0 W/m 0,0 km/h (0 Bft) 97,87 %
28.10.2018 01:14 5,2 C 3,9 C 4,4 C 94 % 1010,5 hPa 0,0 l/m 0 min 0 min 0 W/m 6,4 km/h (2 Bft) 93,62 %
28.10.2018 01:16 5,1 C 3,9 C 4,4 C 94 % 1010,5 hPa 0,0 l/m 0 min 0 min 0 W/m 0,0 km/h (0 Bft) 100,00 %
28.10.2018 01:18 5,1 C 3,9 C 4,4 C 94 % 1010,6 hPa 0,0 l/m 0 min 0 min 0 W/m 6,4 km/h (2 Bft) 97,83 %
28.10.2018 01:20 5,1 C 3,9 C 3,9 C 94 % 1010,6 hPa 0,0 l/m 0 min 0 min 0 W/m 6,4 km/h (2 Bft) 98,31 %
28.10.2018 01:22 5,1 C 3,9 C 3,9 C 94 % 1010,5 hPa 0,0 l/m 0 min 0 min 0 W/m 6,4 km/h (2 Bft) 97,14 %
28.10.2018 01:24 5,1 C 3,9 C 3,9 C 94 % 1010,5 hPa 0,0 l/m 0 min 0 min 0 W/m 0,0 km/h (0 Bft) 95,74 %
28.10.2018 01:26 5,1 C 3,9 C 3,9 C 95 % 1010,5 hPa 0,0 l/m 0 min 0 min 0 W/m 6,4 km/h (2 Bft) 97,87 %
28.10.2018 01:28 5,0 C 3,9 C 3,9 C 95 % 1010,6 hPa 0,0 l/m 0 min 0 min 0 W/m 6,4 km/h (2 Bft) 95,65 %
28.10.2018 01:30 5,0 C 3,9 C 3,9 C 95 % 1010,6 hPa 0,0 l/m 0 min 0 min 0 W/m 6,4 km/h (2 Bft) 95,74 %
28.10.2018 01:32 4,9 C 3,9 C 3,9 C 95 % 1010,6 hPa 0,0 l/m 0 min 0 min 0 W/m 6,4 km/h (2 Bft) 95,74 %
28.10.2018 01:34 4,9 C 3,9 C 3,9 C 95 % 1010,6 hPa 0,0 l/m 0 min 0 min 0 W/m 9,7 km/h (2 Bft) 93,62 %
28.10.2018 01:38 4,9 C 3,9 C 3,9 C 94 % 1010,7 hPa 0,0 l/m 0 min 0 min 0 W/m 16,1 km/h (3 Bft) 95,74 %
28.10.2018 01:40 4,9 C 3,9 C 3,9 C 95 % 1010,7 hPa 0,0 l/m 0 min 0 min 0 W/m 9,7 km/h (2 Bft) 94,34 %
28.10.2018 01:42 4,9 C 3,9 C 3,9 C 95 % 1010,8 hPa 0,0 l/m 0 min 0 min 0 W/m 16,1 km/h (3 Bft) 97,83 %
28.10.2018 01:44 4,9 C 3,9 C 3,9 C 95 % 1010,8 hPa 0,2 l/m 0 min 0 min 0 W/m 19,3 km/h (3 Bft) 95,74 %
28.10.2018 01:46 4,9 C 3,9 C 3,9 C 95 % 1010,8 hPa 0,0 l/m 0 min 0 min 0 W/m 16,1 km/h (3 Bft) 97,62 %
28.10.2018 01:48 4,9 C 3,9 C 3,9 C 95 % 1010,8 hPa 0,0 l/m 0 min 0 min 0 W/m 12,9 km/h (3 Bft) 97,87 %
28.10.2018 01:50 4,9 C 3,9 C 3,9 C 95 % 1010,7 hPa 0,0 l/m 0 min 0 min 0 W/m 22,5 km/h (4 Bft) 97,87 %
28.10.2018 01:52 4,9 C 3,9 C 3,9 C 95 % 1010,9 hPa 0,0 l/m 0 min 0 min 0 W/m 12,9 km/h (3 Bft) 97,83 %
28.10.2018 01:54 4,9 C 3,9 C 3,9 C 95 % 1010,9 hPa 0,0 l/m 0 min 0 min 0 W/m 12,9 km/h (3 Bft) 95,74 %
28.10.2018 01:56 4,8 C 3,9 C 3,9 C 95 % 1011,0 hPa 0,0 l/m 0 min 0 min 0 W/m 9,7 km/h (2 Bft) 95,74 %
28.10.2018 01:58 4,8 C 3,9 C 3,9 C 95 % 1011,0 hPa 0,0 l/m 0 min 0 min 0 W/m 6,4 km/h (2 Bft) 97,87 %
28.10.2018 02:00 4,8 C 3,9 C 3,9 C 95 % 1011,0 hPa 0,0 l/m 0 min 0 min 0 W/m 9,7 km/h (2 Bft) 95,74 %
28.10.2018 02:02 4,8 C 3,9 C 3,9 C 95 % 1011,1 hPa 0,0 l/m 0 min 0 min 0 W/m 9,7 km/h (2 Bft) 95,74 %
28.10.2018 02:04 4,8 C 3,9 C 3,9 C 95 % 1011,2 hPa 0,0 l/m 0 min 0 min 0 W/m 12,9 km/h (3 Bft) 95,65 %
28.10.2018 02:08 4,8 C 3,9 C 3,9 C 95 % 1011,1 hPa 0,0 l/m 0 min 0 min 0 W/m 9,7 km/h (2 Bft) 96,00 %
28.10.2018 02:10 4,8 C 3,9 C 3,9 C 95 % 1011,0 hPa 0,0 l/m 0 min 0 min 0 W/m 9,7 km/h (2 Bft) 97,87 %
28.10.2018 02:12 4,7 C 3,9 C 3,9 C 95 % 1011,0 hPa 0,0 l/m 0 min 0 min 0 W/m 9,7 km/h (2 Bft) 93,62 %
28.10.2018 02:14 4,7 C 3,9 C 3,9 C 95 % 1011,0 hPa 0,0 l/m 0 min 0 min 0 W/m 12,9 km/h (3 Bft) 95,74 %
28.10.2018 02:16 4,7 C 3,9 C 3,9 C 95 % 1011,1 hPa 0,0 l/m 0 min 0 min 0 W/m 12,9 km/h (3 Bft) 95,65 %
28.10.2018 02:18 4,7 C 3,9 C 3,9 C 95 % 1011,1 hPa 0,0 l/m 0 min 0 min 0 W/m 0,0 km/h (0 Bft) 95,74 %
28.10.2018 02:20 4,7 C 3,9 C 3,9 C 95 % 1011,2 hPa 0,0 l/m 0 min 0 min 0 W/m 9,7 km/h (2 Bft) 97,87 %
28.10.2018 02:22 4,7 C 3,9 C 3,9 C 95 % 1011,1 hPa 0,0 l/m 0 min 0 min 0 W/m 16,1 km/h (3 Bft) 97,87 %
28.10.2018 02:24 4,6 C 3,9 C 3,9 C 95 % 1011,1 hPa 0,0 l/m 0 min 0 min 0 W/m 9,7 km/h (2 Bft) 97,87 %
28.10.2018 02:26 4,6 C 3,3 C 3,9 C 95 % 1011,2 hPa 0,0 l/m 0 min 0 min 0 W/m 9,7 km/h (2 Bft) 100,00 %
28.10.2018 02:28 4,6 C 3,3 C 3,9 C 95 % 1011,2 hPa 0,0 l/m 0 min 0 min 0 W/m 3,2 km/h (1 Bft) 93,62 %
28.10.2018 02:30 4,6 C 3,3 C 3,9 C 95 % 1011,2 hPa 0,0 l/m 0 min 0 min 0 W/m 9,7 km/h (2 Bft) 95,74 %
28.10.2018 02:32 4,6 C 3,3 C 3,9 C 95 % 1011,2 hPa 0,0 l/m 0 min 0 min 0 W/m 19,3 km/h (3 Bft) 97,87 %
28.10.2018 02:34 4,5 C 3,3 C 3,9 C 95 % 1011,2 hPa 0,0 l/m 0 min 0 min 0 W/m 16,1 km/h (3 Bft) 97,87 %
28.10.2018 02:38 4,5 C 3,3 C 3,9 C 95 % 1011,1 hPa 0,0 l/m 0 min 0 min 0 W/m 12,9 km/h (3 Bft) 97,87 %
28.10.2018 02:40 4,4 C 3,3 C 3,3 C 95 % 1011,1 hPa 0,0 l/m 0 min 0 min 0 W/m 9,7 km/h (2 Bft) 95,65 %
28.10.2018 02:42 4,4 C 3,3 C 3,9 C 95 % 1011,1 hPa 0,0 l/m 0 min 0 min 0 W/m 12,9 km/h (3 Bft) 97,87 %
28.10.2018 02:44 4,4 C 3,3 C 3,9 C 95 % 1011,2 hPa 0,0 l/m 0 min 0 min 0 W/m 16,1 km/h (3 Bft) 97,87 %
28.10.2018 02:46 4,4 C 3,3 C 3,9 C 95 % 1011,1 hPa 0,0 l/m 0 min 0 min 0 W/m 12,9 km/h (3 Bft) 97,87 %
28.10.2018 02:48 4,4 C 3,3 C 3,9 C 95 % 1011,1 hPa 0,0 l/m 0 min 0 min 0 W/m 16,1 km/h (3 Bft) 93,62 %
28.10.2018 02:50 4,4 C 3,3 C 3,9 C 95 % 1011,1 hPa 0,0 l/m 0 min 0 min 0 W/m 12,9 km/h (3 Bft) 97,83 %
28.10.2018 02:52 4,4 C 3,3 C 3,9 C 95 % 1011,1 hPa 0,0 l/m 0 min 0 min 0 W/m 12,9 km/h (3 Bft) 97,87 %
28.10.2018 02:54 4,3 C 3,3 C 3,3 C 95 % 1011,1 hPa 0,0 l/m 0 min 0 min 0 W/m 12,9 km/h (3 Bft) 95,74 %
28.10.2018 02:56 4,3 C 3,3 C 3,3 C 95 % 1011,1 hPa 0,0 l/m 0 min 0 min 0 W/m 16,1 km/h (3 Bft) 100,00 %
28.10.2018 02:58 4,3 C 3,3 C 3,3 C 95 % 1011,1 hPa 0,0 l/m 0 min 0 min 0 W/m 12,9 km/h (3 Bft) 100,00 %
28.10.2018 02:00 4,3 C 3,3 C 3,3 C 95 % 1011,1 hPa 0,0 l/m 0 min 0 min 0 W/m 12,9 km/h (3 Bft) 100,00 %
28.10.2018 02:03 4,2 C 3,3 C 3,3 C 95 % 1011,2 hPa 0,0 l/m 0 min 0 min 0 W/m 16,1 km/h (3 Bft) 100,00 %
28.10.2018 02:04 4,2 C 3,3 C 3,3 C 95 % 1011,2 hPa 0,0 l/m 0 min 0 min 0 W/m 16,1 km/h (3 Bft) 100,00 %
28.10.2018 02:08 4,2 C 3,3 C 3,3 C 95 % 1011,2 hPa 0,0 l/m 0 min 0 min 0 W/m 19,3 km/h (3 Bft) 97,87 %
28.10.2018 02:10 4,2 C 3,3 C 3,3 C 95 % 1011,2 hPa 0,0 l/m 0 min 0 min 0 W/m 16,1 km/h (3 Bft) 100,00 %
28.10.2018 02:12 4,1 C 3,3 C 3,3 C 95 % 1011,2 hPa 0,0 l/m 0 min 0 min 0 W/m 12,9 km/h (3 Bft) 100,00 %
28.10.2018 02:14 4,1 C 3,3 C 3,3 C 95 % 1011,2 hPa 0,0 l/m 0 min 0 min 0 W/m 6,4 km/h (2 Bft) 100,00 %
28.10.2018 02:16 4,1 C 3,3 C 3,3 C 95 % 1011,1 hPa 0,0 l/m 0 min 0 min 0 W/m 12,9 km/h (3 Bft) 97,87 %
28.10.2018 02:18 4,1 C 3,3 C 3,3 C 95 % 1011,1 hPa 0,0 l/m 0 min 0 min 0 W/m 32,2 km/h (5 Bft) 100,00 %
28.10.2018 02:20 4,1 C 3,3 C 3,3 C 95 % 1011,2 hPa 0,0 l/m 0 min 0 min 0 W/m 29,0 km/h (5 Bft) 100,00 %
28.10.2018 02:22 4,0 C 3,3 C 3,3 C 95 % 1011,2 hPa 0,0 l/m 0 min 0 min 0 W/m 16,1 km/h (3 Bft) 97,87 %
28.10.2018 02:24 4,0 C 3,3 C 3,3 C 95 % 1011,1 hPa 0,0 l/m 0 min 0 min 0 W/m 16,1 km/h (3 Bft) 100,00 %
28.10.2018 02:26 3,9 C 2,8 C 3,3 C 95 % 1011,1 hPa 0,0 l/m 0 min 0 min 0 W/m 19,3 km/h (3 Bft) 100,00 %
28.10.2018 02:28 3,9 C 3,3 C 3,3 C 95 % 1011,1 hPa 0,0 l/m 0 min 0 min 0 W/m 19,3 km/h (3 Bft) 100,00 %
28.10.2018 02:30 3,9 C 2,8 C 3,3 C 95 % 1011,2 hPa 0,0 l/m 0 min 0 min 0 W/m 12,9 km/h (3 Bft) 100,00 %
28.10.2018 02:32 3,9 C 2,8 C 3,3 C 95 % 1011,1 hPa 0,0 l/m 0 min 0 min 0 W/m 12,9 km/h (3 Bft) 100,00 %
28.10.2018 02:34 3,9 C 2,8 C 3,3 C 95 % 1011,2 hPa 0,0 l/m 0 min 0 min 0 W/m 16,1 km/h (3 Bft) 100,00 %
28.10.2018 02:38 3,9 C 2,8 C 3,3 C 95 % 1011,2 hPa 0,0 l/m 0 min 0 min 0 W/m 19,3 km/h (3 Bft) 97,85 %
28.10.2018 02:40 3,9 C 2,8 C 3,3 C 95 % 1011,3 hPa 0,0 l/m 0 min 0 min 0 W/m 12,9 km/h (3 Bft) 100,00 %
28.10.2018 02:42 3,8 C 2,8 C 3,3 C 95 % 1011,3 hPa 0,0 l/m 0 min 0 min 0 W/m 12,9 km/h (3 Bft) 100,00 %
28.10.2018 02:44 3,8 C 2,8 C 3,3 C 95 % 1011,4 hPa 0,0 l/m 0 min 0 min 0 W/m 22,5 km/h (4 Bft) 100,00 %
28.10.2018 02:46 3,8 C 2,8 C 3,3 C 95 % 1011,4 hPa 0,0 l/m 0 min 0 min 0 W/m 16,1 km/h (3 Bft) 100,00 %
28.10.2018 02:48 3,8 C 2,8 C 3,3 C 95 % 1011,4 hPa 0,0 l/m 0 min 0 min 0 W/m 12,9 km/h (3 Bft) 100,00 %
28.10.2018 02:50 3,8 C 2,8 C 2,8 C 95 % 1011,4 hPa 0,0 l/m 0 min 0 min 0 W/m 16,1 km/h (3 Bft) 100,00 %
28.10.2018 02:52 3,7 C 2,8 C 2,8 C 95 % 1011,4 hPa 0,0 l/m 0 min 0 min 0 W/m 25,7 km/h (4 Bft) 100,00 %
28.10.2018 02:54 3,7 C 2,8 C 2,8 C 95 % 1011,4 hPa 0,0 l/m 0 min 0 min 0 W/m 16,1 km/h (3 Bft) 97,87 %
28.10.2018 02:56 3,7 C 2,8 C 2,8 C 95 % 1011,4 hPa 0,0 l/m 0 min 0 min 0 W/m 25,7 km/h (4 Bft) 97,87 %
28.10.2018 02:58 3,7 C 2,8 C 2,8 C 95 % 1011,4 hPa 0,0 l/m 0 min 0 min 0 W/m 22,5 km/h (4 Bft) 100,00 %
28.10.2018 03:00 3,7 C 2,8 C 2,8 C 95 % 1011,4 hPa 0,0 l/m 0 min 0 min 0 W/m 16,1 km/h (3 Bft) 100,00 %
28.10.2018 03:02 3,7 C 2,8 C 2,8 C 95 % 1011,4 hPa 0,0 l/m 0 min 0 min 0 W/m 12,9 km/h (3 Bft) 100,00 %
28.10.2018 03:04 3,7 C 2,8 C 2,8 C 95 % 1011,5 hPa 0,0 l/m 0 min 0 min 0 W/m 16,1 km/h (3 Bft) 100,00 %
28.10.2018 03:08 3,6 C 2,8 C 2,8 C 95 % 1011,5 hPa 0,0 l/m 0 min 0 min 0 W/m 12,9 km/h (3 Bft) 100,00 %
28.10.2018 03:10 3,6 C 2,8 C 2,8 C 95 % 1011,6 hPa 0,0 l/m 0 min 0 min 0 W/m 12,9 km/h (3 Bft) 100,00 %
28.10.2018 03:12 3,6 C 2,8 C 2,8 C 95 % 1011,6 hPa 0,0 l/m 0 min 0 min 0 W/m 12,9 km/h (3 Bft) 97,83 %
28.10.2018 03:14 3,6 C 2,8 C 2,8 C 95 % 1011,7 hPa 0,0 l/m 0 min 0 min 0 W/m 12,9 km/h (3 Bft) 100,00 %
28.10.2018 03:16 3,5 C 2,8 C 2,8 C 95 % 1011,7 hPa 0,0 l/m 0 min 0 min 0 W/m 19,3 km/h (3 Bft) 100,00 %
28.10.2018 03:18 3,5 C 2,8 C 2,8 C 95 % 1011,7 hPa 0,0 l/m 0 min 0 min 0 W/m 12,9 km/h (3 Bft) 100,00 %
28.10.2018 03:20 3,5 C 2,8 C 2,8 C 95 % 1011,6 hPa 0,0 l/m 0 min 0 min 0 W/m 29,0 km/h (5 Bft) 97,87 %
28.10.2018 03:22 3,5 C 2,8 C 2,8 C 95 % 1011,7 hPa 0,0 l/m 0 min 0 min 0 W/m 25,7 km/h (4 Bft) 98,11 %
28.10.2018 03:24 3,4 C 2,8 C 2,8 C 95 % 1011,6 hPa 0,0 l/m 0 min 0 min 0 W/m 9,7 km/h (2 Bft) 97,83 %
28.10.2018 03:26 3,4 C 2,8 C 2,8 C 95 % 1011,6 hPa 0,0 l/m 0 min 0 min 0 W/m 16,1 km/h (3 Bft) 95,74 %
28.10.2018 03:28 3,4 C 2,2 C 2,8 C 95 % 1011,6 hPa 0,0 l/m 0 min 0 min 0 W/m 9,7 km/h (2 Bft) 93,62 %
28.10.2018 03:30 3,4 C 2,2 C 2,8 C 95 % 1011,7 hPa 0,0 l/m 0 min 0 min 0 W/m 9,7 km/h (2 Bft) 91,49 %
28.10.2018 03:32 3,4 C 2,2 C 2,8 C 95 % 1011,8 hPa 0,0 l/m 0 min 0 min 0 W/m 16,1 km/h (3 Bft) 97,87 %
28.10.2018 03:34 3,4 C 2,2 C 2,8 C 95 % 1011,8 hPa 0,0 l/m 0 min 0 min 0 W/m 19,3 km/h (3 Bft) 97,83 %
28.10.2018 03:38 3,3 C 2,2 C 2,8 C 95 % 1011,7 hPa 0,0 l/m 0 min 0 min 0 W/m 19,3 km/h (3 Bft) 96,81 %
28.10.2018 03:40 3,3 C 2,2 C 2,8 C 95 % 1011,7 hPa 0,0 l/m 0 min 0 min 0 W/m 9,7 km/h (2 Bft) 95,74 %
28.10.2018 03:42 3,3 C 2,2 C 2,8 C 94 % 1011,6 hPa 0,0 l/m 0 min 0 min 0 W/m 22,5 km/h (4 Bft) 95,74 %
28.10.2018 03:44 3,3 C 2,2 C 2,8 C 95 % 1011,7 hPa 0,0 l/m 0 min 0 min 0 W/m 16,1 km/h (3 Bft) 95,83 %
28.10.2018 03:46 3,3 C 2,2 C 2,8 C 95 % 1011,7 hPa 0,0 l/m 0 min 0 min 0 W/m 19,3 km/h (3 Bft) 93,48 %
28.10.2018 03:48 3,3 C 2,2 C 2,8 C 95 % 1011,6 hPa 0,0 l/m 0 min 0 min 0 W/m 9,7 km/h (2 Bft) 93,62 %
28.10.2018 03:50 3,3 C 2,2 C 2,2 C 94 % 1011,8 hPa 0,0 l/m 0 min 0 min 0 W/m 12,9 km/h (3 Bft) 95,74 %
28.10.2018 03:52 3,3 C 2,2 C 2,2 C 94 % 1011,8 hPa 0,0 l/m 0 min 0 min 0 W/m 9,7 km/h (2 Bft) 90,48 %
28.10.2018 03:54 3,2 C 2,2 C 2,2 C 94 % 1011,9 hPa 0,0 l/m 0 min 0 min 0 W/m 12,9 km/h (3 Bft) 93,62 %
28.10.2018 03:56 3,2 C 2,2 C 2,2 C 94 % 1011,8 hPa 0,0 l/m 0 min 0 min 0 W/m 9,7 km/h (2 Bft) 91,49 %
28.10.2018 03:58 3,2 C 2,2 C 2,2 C 94 % 1011,7 hPa 0,0 l/m 0 min 0 min 0 W/m 12,9 km/h (3 Bft) 95,65 %
28.10.2018 04:00 3,2 C 2,2 C 2,2 C 94 % 1011,7 hPa 0,0 l/m 0 min 0 min 0 W/m 16,1 km/h (3 Bft) 91,49 %
28.10.2018 04:02 3,2 C 2,2 C 2,2 C 94 % 1011,7 hPa 0,0 l/m 0 min 0 min 0 W/m 6,4 km/h (2 Bft) 96,43 %
28.10.2018 04:04 3,2 C 2,2 C 2,2 C 94 % 1011,7 hPa 0,0 l/m 0 min 0 min 0 W/m 9,7 km/h (2 Bft) 93,62 %
28.10.2018 04:08 3,1 C 2,2 C 2,2 C 94 % 1011,7 hPa 0,0 l/m 0 min 0 min 0 W/m 19,3 km/h (3 Bft) 92,63 %
28.10.2018 04:10 3,1 C 2,2 C 2,2 C 94 % 1011,7 hPa 0,0 l/m 0 min 0 min 0 W/m 9,7 km/h (2 Bft) 93,48 %
28.10.2018 04:12 3,1 C 2,2 C 2,2 C 94 % 1011,7 hPa 0,0 l/m 0 min 0 min 0 W/m 12,9 km/h (3 Bft) 93,62 %
28.10.2018 04:14 3,1 C 2,2 C 2,2 C 94 % 1011,7 hPa 0,0 l/m 0 min 0 min 0 W/m 9,7 km/h (2 Bft) 93,62 %
28.10.2018 04:16 3,0 C 2,2 C 2,2 C 94 % 1011,8 hPa 0,0 l/m 0 min 0 min 0 W/m 12,9 km/h (3 Bft) 95,74 %
28.10.2018 04:18 3,0 C 2,2 C 2,2 C 94 % 1011,9 hPa 0,0 l/m 0 min 0 min 0 W/m 12,9 km/h (3 Bft) 91,49 %
28.10.2018 04:20 3,0 C 2,2 C 2,2 C 94 % 1011,9 hPa 0,0 l/m 0 min 0 min 0 W/m 9,7 km/h (2 Bft) 95,65 %
28.10.2018 04:22 3,0 C 1,7 C 2,2 C 94 % 1011,8 hPa 0,0 l/m 0 min 0 min 0 W/m 6,4 km/h (2 Bft) 97,87 %
28.10.2018 04:24 2,9 C 1,7 C 2,2 C 94 % 1011,7 hPa 0,0 l/m 0 min 0 min 0 W/m 9,7 km/h (2 Bft) 97,87 %
28.10.2018 04:26 2,9 C 1,7 C 2,2 C 94 % 1011,6 hPa 0,0 l/m 0 min 0 min 0 W/m 12,9 km/h (3 Bft) 93,62 %
28.10.2018 04:28 2,9 C 2,2 C 2,2 C 94 % 1011,4 hPa 0,0 l/m 0 min 0 min 0 W/m 19,3 km/h (3 Bft) 95,74 %
28.10.2018 04:30 2,9 C 2,2 C 2,2 C 94 % 1011,4 hPa 0,0 l/m 0 min 0 min 0 W/m 9,7 km/h (2 Bft) 97,87 %
28.10.2018 04:32 2,9 C 1,7 C 2,2 C 94 % 1011,5 hPa 0,0 l/m 0 min 0 min 0 W/m 12,9 km/h (3 Bft) 97,83 %
28.10.2018 04:34 2,9 C 2,2 C 2,2 C 94 % 1011,6 hPa 0,0 l/m 0 min 0 min 0 W/m 12,9 km/h (3 Bft) 93,62 %
28.10.2018 04:38 2,8 C 2,2 C 2,2 C 94 % 1011,8 hPa 0,0 l/m 0 min 0 min 0 W/m 19,3 km/h (3 Bft) 96,81 %
28.10.2018 04:40 2,8 C 1,7 C 2,2 C 94 % 1011,7 hPa 0,0 l/m 0 min 0 min 0 W/m 0,0 km/h (0 Bft) 95,74 %
28.10.2018 04:42 2,8 C 1,7 C 2,2 C 94 % 1011,6 hPa 0,0 l/m 0 min 0 min 0 W/m 19,3 km/h (3 Bft) 97,87 %
28.10.2018 04:44 2,8 C 1,7 C 2,2 C 94 % 1011,7 hPa 0,0 l/m 0 min 0 min 0 W/m 19,3 km/h (3 Bft) 95,65 %
28.10.2018 04:46 2,8 C 1,7 C 2,2 C 94 % 1011,6 hPa 0,0 l/m 0 min 0 min 0 W/m 16,1 km/h (3 Bft) 94,00 %
28.10.2018 04:48 2,8 C 1,7 C 2,2 C 94 % 1011,6 hPa 0,0 l/m 0 min 0 min 0 W/m 9,7 km/h (2 Bft) 97,87 %
28.10.2018 04:50 2,8 C 1,7 C 2,2 C 94 % 1011,8 hPa 0,0 l/m 0 min 0 min 0 W/m 9,7 km/h (2 Bft) 91,49 %
28.10.2018 04:52 2,8 C 1,7 C 2,2 C 94 % 1011,9 hPa 0,0 l/m 0 min 0 min 0 W/m 16,1 km/h (3 Bft) 93,62 %
28.10.2018 04:54 2,8 C 1,7 C 2,2 C 94 % 1012,0 hPa 0,0 l/m 0 min 0 min 0 W/m 12,9 km/h (3 Bft) 97,87 %
28.10.2018 04:56 2,7 C 1,7 C 2,2 C 94 % 1012,1 hPa 0,0 l/m 0 min 0 min 0 W/m 6,4 km/h (2 Bft) 97,83 %
28.10.2018 04:58 2,7 C 1,7 C 2,2 C 94 % 1012,3 hPa 0,0 l/m 0 min 0 min 0 W/m 9,7 km/h (2 Bft) 97,87 %
28.10.2018 05:00 2,7 C 1,7 C 2,2 C 94 % 1012,4 hPa 0,0 l/m 0 min 0 min 0 W/m 9,7 km/h (2 Bft) 97,87 %
28.10.2018 05:02 2,7 C 1,7 C 2,2 C 94 % 1012,5 hPa 0,0 l/m 0 min 0 min 0 W/m 6,4 km/h (2 Bft) 97,92 %
28.10.2018 05:04 2,7 C 1,7 C 2,2 C 94 % 1012,5 hPa 0,0 l/m 0 min 0 min 0 W/m 9,7 km/h (2 Bft) 97,87 %
28.10.2018 05:08 2,7 C 1,7 C 2,2 C 94 % 1012,5 hPa 0,0 l/m 0 min 0 min 0 W/m 16,1 km/h (3 Bft) 98,95 %
28.10.2018 05:10 2,7 C 1,7 C 2,2 C 94 % 1012,5 hPa 0,0 l/m 0 min 0 min 0 W/m 9,7 km/h (2 Bft) 100,00 %
28.10.2018 05:12 2,7 C 1,7 C 2,2 C 94 % 1012,5 hPa 0,0 l/m 0 min 0 min 0 W/m 12,9 km/h (3 Bft) 100,00 %
28.10.2018 05:14 2,7 C 1,7 C 2,2 C 94 % 1012,5 hPa 0,0 l/m 0 min 0 min 0 W/m 12,9 km/h (3 Bft) 97,87 %
28.10.2018 05:16 2,7 C 1,7 C 2,2 C 94 % 1012,5 hPa 0,0 l/m 0 min 0 min 0 W/m 12,9 km/h (3 Bft) 100,00 %
28.10.2018 05:18 2,7 C 1,7 C 2,2 C 94 % 1012,5 hPa 0,0 l/m 0 min 0 min 0 W/m 12,9 km/h (3 Bft) 100,00 %
28.10.2018 05:20 2,6 C 1,7 C 2,2 C 94 % 1012,7 hPa 0,0 l/m 0 min 0 min 0 W/m 12,9 km/h (3 Bft) 97,87 %
28.10.2018 05:22 2,6 C 1,7 C 2,2 C 94 % 1012,7 hPa 0,0 l/m 0 min 0 min 0 W/m 12,9 km/h (3 Bft) 97,87 %
28.10.2018 05:24 2,6 C 1,7 C 2,2 C 94 % 1012,6 hPa 0,0 l/m 0 min 0 min 0 W/m 22,5 km/h (4 Bft) 100,00 %
28.10.2018 05:26 2,6 C 1,7 C 2,2 C 94 % 1012,6 hPa 0,0 l/m 0 min 0 min 0 W/m 16,1 km/h (3 Bft) 95,74 %
28.10.2018 05:28 2,6 C 1,7 C 2,2 C 94 % 1012,6 hPa 0,0 l/m 0 min 0 min 0 W/m 12,9 km/h (3 Bft) 100,00 %
28.10.2018 05:30 2,6 C 1,7 C 2,2 C 94 % 1012,7 hPa 0,0 l/m 0 min 0 min 0 W/m 12,9 km/h (3 Bft) 100,00 %
28.10.2018 05:32 2,6 C 1,7 C 2,2 C 94 % 1012,7 hPa 0,0 l/m 0 min 0 min 0 W/m 16,1 km/h (3 Bft) 97,87 %
28.10.2018 05:34 2,6 C 1,7 C 2,2 C 94 % 1012,6 hPa 0,0 l/m 0 min 0 min 0 W/m 9,7 km/h (2 Bft) 93,62 %
28.10.2018 05:38 2,6 C 1,7 C 2,2 C 94 % 1012,5 hPa 0,0 l/m 0 min 0 min 0 W/m 12,9 km/h (3 Bft) 98,94 %
28.10.2018 05:40 2,6 C 1,7 C 2,2 C 94 % 1012,6 hPa 0,0 l/m 0 min 0 min 0 W/m 16,1 km/h (3 Bft) 97,83 %
28.10.2018 05:42 2,6 C 1,7 C 2,2 C 94 % 1012,6 hPa 0,0 l/m 0 min 0 min 0 W/m 9,7 km/h (2 Bft) 100,00 %
28.10.2018 05:44 2,6 C 2,2 C 2,2 C 94 % 1012,7 hPa 0,0 l/m 0 min 0 min 0 W/m 9,7 km/h (2 Bft) 100,00 %
28.10.2018 05:46 2,6 C 2,2 C 2,2 C 94 % 1012,7 hPa 0,0 l/m 0 min 0 min 0 W/m 19,3 km/h (3 Bft) 97,92 %
28.10.2018 05:48 2,6 C 2,2 C 2,2 C 94 % 1012,6 hPa 0,0 l/m 0 min 0 min 0 W/m 6,4 km/h (2 Bft) 97,87 %
28.10.2018 05:50 2,7 C 2,2 C 2,2 C 94 % 1012,7 hPa 0,0 l/m 0 min 0 min 0 W/m 16,1 km/h (3 Bft) 100,00 %
28.10.2018 05:52 2,7 C 2,2 C 2,2 C 94 % 1012,7 hPa 0,0 l/m 0 min 0 min 0 W/m 16,1 km/h (3 Bft) 100,00 %
28.10.2018 05:54 2,7 C 2,2 C 2,8 C 94 % 1012,7 hPa 0,0 l/m 0 min 0 min 0 W/m 25,7 km/h (4 Bft) 97,87 %
28.10.2018 05:56 2,7 C 2,2 C 2,8 C 94 % 1012,8 hPa 0,0 l/m 0 min 0 min 0 W/m 16,1 km/h (3 Bft) 97,83 %
28.10.2018 06:00 2,8 C 2,2 C 2,8 C 94 % 1012,9 hPa 0,0 l/m 0 min 0 min 0 W/m 12,9 km/h (3 Bft) 97,37 %
28.10.2018 06:02 2,8 C 2,2 C 2,8 C 94 % 1012,9 hPa 0,0 l/m 0 min 0 min 0 W/m 16,1 km/h (3 Bft) 97,87 %
28.10.2018 06:04 2,8 C 2,2 C 2,8 C 94 % 1012,9 hPa 0,0 l/m 0 min 0 min 0 W/m 12,9 km/h (3 Bft) 97,62 %
28.10.2018 06:08 2,8 C 2,2 C 2,8 C 94 % 1012,9 hPa 0,0 l/m 0 min 0 min 0 W/m 19,3 km/h (3 Bft) 100,00 %
28.10.2018 06:10 2,9 C 2,2 C 2,8 C 95 % 1012,9 hPa 0,0 l/m 0 min 0 min 0 W/m 22,5 km/h (4 Bft) 96,00 %
28.10.2018 06:12 2,9 C 2,2 C 2,8 C 95 % 1012,9 hPa 0,0 l/m 0 min 0 min 0 W/m 9,7 km/h (2 Bft) 95,74 %
28.10.2018 06:14 2,9 C 2,2 C 2,8 C 95 % 1012,8 hPa 0,0 l/m 0 min 0 min 0 W/m 12,9 km/h (3 Bft) 95,74 %
28.10.2018 06:16 2,9 C 2,2 C 2,2 C 95 % 1012,8 hPa 0,0 l/m 0 min 0 min 0 W/m 12,9 km/h (3 Bft) 94,29 %
28.10.2018 06:18 2,9 C 2,2 C 2,2 C 94 % 1012,7 hPa 0,0 l/m 0 min 0 min 0 W/m 19,3 km/h (3 Bft) 93,62 %
28.10.2018 06:20 2,9 C 2,2 C 2,2 C 94 % 1012,8 hPa 0,0 l/m 0 min 0 min 0 W/m 22,5 km/h (4 Bft) 93,10 %
28.10.2018 06:22 2,9 C 2,2 C 2,2 C 94 % 1012,8 hPa 0,0 l/m 0 min 0 min 0 W/m 12,9 km/h (3 Bft) 91,67 %
28.10.2018 06:24 2,9 C 2,2 C 2,2 C 94 % 1012,8 hPa 0,0 l/m 0 min 0 min 0 W/m 9,7 km/h (2 Bft) 93,48 %
28.10.2018 06:26 2,8 C 2,2 C 2,2 C 94 % 1012,8 hPa 0,0 l/m 0 min 0 min 0 W/m 19,3 km/h (3 Bft) 95,74 %
28.10.2018 06:28 2,8 C 2,2 C 2,2 C 94 % 1012,9 hPa 0,0 l/m 0 min 0 min 0 W/m 9,7 km/h (2 Bft) 92,86 %
28.10.2018 06:30 2,8 C 2,2 C 2,2 C 94 % 1013,0 hPa 0,0 l/m 0 min 0 min 0 W/m 12,9 km/h (3 Bft) 83,67 %
28.10.2018 06:32 2,8 C 2,2 C 2,2 C 94 % 1013,0 hPa 0,0 l/m 0 min 0 min 0 W/m 16,1 km/h (3 Bft) 87,76 %
28.10.2018 06:34 2,8 C 2,2 C 2,2 C 94 % 1012,9 hPa 0,0 l/m 0 min 0 min 0 W/m 6,4 km/h (2 Bft) 94,29 %
28.10.2018 06:38 2,8 C 2,2 C 2,2 C 94 % 1012,9 hPa 0,0 l/m 0 min 0 min 0 W/m 12,9 km/h (3 Bft) 89,11 %
28.10.2018 06:40 2,8 C 2,2 C 2,2 C 94 % 1012,9 hPa 0,0 l/m 0 min 0 min 0 W/m 12,9 km/h (3 Bft) 93,88 %
28.10.2018 06:42 2,8 C 2,2 C 2,2 C 94 % 1013,0 hPa 0,0 l/m 0 min 0 min 0 W/m 9,7 km/h (2 Bft) 93,62 %
28.10.2018 06:44 2,8 C 2,2 C 2,2 C 94 % 1012,9 hPa 0,0 l/m 0 min 0 min 0 W/m 16,1 km/h (3 Bft) 87,76 %
28.10.2018 06:46 2,8 C 2,2 C 2,2 C 94 % 1012,9 hPa 0,0 l/m 0 min 0 min 0 W/m 9,7 km/h (2 Bft) 94,29 %
28.10.2018 06:48 2,8 C 2,2 C 2,2 C 94 % 1012,9 hPa 0,0 l/m 0 min 0 min 0 W/m 16,1 km/h (3 Bft) 95,74 %
28.10.2018 06:50 2,8 C 2,2 C 2,2 C 94 % 1012,9 hPa 0,0 l/m 0 min 0 min 0 W/m 9,7 km/h (2 Bft) 93,62 %
28.10.2018 06:52 2,8 C 2,2 C 2,2 C 94 % 1012,9 hPa 0,0 l/m 0 min 0 min 0 W/m 9,7 km/h (2 Bft) 95,74 %
28.10.2018 06:54 2,8 C 2,2 C 2,8 C 94 % 1013,0 hPa 0,0 l/m 0 min 0 min 0 W/m 6,4 km/h (2 Bft) 95,74 %
28.10.2018 06:56 2,8 C 2,2 C 2,8 C 94 % 1013,0 hPa 0,0 l/m 0 min 0 min 0 W/m 9,7 km/h (2 Bft) 97,87 %
28.10.2018 06:58 2,8 C 2,2 C 2,8 C 94 % 1013,0 hPa 0,0 l/m 0 min 0 min 0 W/m 6,4 km/h (2 Bft) 95,65 %
28.10.2018 07:00 2,8 C 2,2 C 2,2 C 94 % 1013,0 hPa 0,0 l/m 0 min 0 min 0 W/m 9,7 km/h (2 Bft) 97,87 %
28.10.2018 07:02 2,8 C 2,2 C 2,2 C 94 % 1013,0 hPa 0,0 l/m 0 min 0 min 0 W/m 12,9 km/h (3 Bft) 97,87 %
28.10.2018 07:04 2,8 C 2,2 C 2,2 C 94 % 1013,0 hPa 0,0 l/m 0 min 0 min 0 W/m 9,7 km/h (2 Bft) 100,00 %
28.10.2018 07:08 2,8 C 2,2 C 2,2 C 94 % 1013,1 hPa 0,0 l/m 0 min 0 min 0 W/m 12,9 km/h (3 Bft) 97,87 %
28.10.2018 07:10 2,8 C 2,2 C 2,2 C 94 % 1013,1 hPa 0,0 l/m 0 min 0 min 0 W/m 0,0 km/h (0 Bft) 100,00 %
28.10.2018 07:12 2,8 C 2,2 C 2,2 C 94 % 1013,1 hPa 0,0 l/m 0 min 0 min 0 W/m 16,1 km/h (3 Bft) 97,87 %
28.10.2018 07:14 2,8 C 2,2 C 2,2 C 94 % 1013,0 hPa 0,0 l/m 0 min 0 min 0 W/m 9,7 km/h (2 Bft) 100,00 %
28.10.2018 07:16 2,7 C 2,2 C 2,2 C 94 % 1013,0 hPa 0,0 l/m 0 min 0 min 0 W/m 6,4 km/h (2 Bft) 100,00 %
28.10.2018 07:18 2,7 C 2,2 C 2,2 C 94 % 1013,1 hPa 0,0 l/m 0 min 0 min 0 W/m 16,1 km/h (3 Bft) 97,87 %
28.10.2018 07:20 2,7 C 2,2 C 2,2 C 94 % 1013,1 hPa 0,0 l/m 0 min 0 min 0 W/m 16,1 km/h (3 Bft) 97,87 %
28.10.2018 07:22 2,7 C 2,2 C 2,2 C 94 % 1013,0 hPa 0,0 l/m 0 min 0 min 0 W/m 16,1 km/h (3 Bft) 97,83 %
28.10.2018 07:24 2,7 C 2,2 C 2,2 C 94 % 1013,1 hPa 0,0 l/m 0 min 0 min 0 W/m 9,7 km/h (2 Bft) 100,00 %
28.10.2018 07:26 2,7 C 2,2 C 2,2 C 94 % 1013,0 hPa 0,0 l/m 0 min 0 min 4 W/m 12,9 km/h (3 Bft) 97,87 %
28.10.2018 07:28 2,7 C 1,7 C 2,2 C 94 % 1013,1 hPa 0,0 l/m 0 min 0 min 5 W/m 6,4 km/h (2 Bft) 100,00 %
28.10.2018 07:30 2,6 C 1,7 C 2,2 C 94 % 1013,1 hPa 0,0 l/m 0 min 0 min 5 W/m 9,7 km/h (2 Bft) 100,00 %
28.10.2018 07:32 2,6 C 1,7 C 2,2 C 94 % 1013,2 hPa 0,0 l/m 0 min 0 min 5 W/m 12,9 km/h (3 Bft) 100,00 %
28.10.2018 07:34 2,6 C 1,7 C 2,2 C 94 % 1013,2 hPa 0,0 l/m 0 min 0 min 6 W/m 12,9 km/h (3 Bft) 100,00 %
28.10.2018 07:38 2,6 C 2,2 C 2,2 C 94 % 1013,3 hPa 0,0 l/m 0 min 0 min 7 W/m 12,9 km/h (3 Bft) 98,04 %
28.10.2018 07:40 2,5 C 2,2 C 2,2 C 94 % 1013,4 hPa 0,0 l/m 0 min 0 min 7 W/m 6,4 km/h (2 Bft) 100,00 %
28.10.2018 07:42 2,5 C 1,7 C 2,2 C 94 % 1013,2 hPa 0,0 l/m 0 min 0 min 9 W/m 9,7 km/h (2 Bft) 100,00 %
28.10.2018 07:44 2,5 C 1,7 C 2,2 C 94 % 1013,2 hPa 0,0 l/m 0 min 0 min 9 W/m 12,9 km/h (3 Bft) 100,00 %
28.10.2018 07:46 2,5 C 2,2 C 2,2 C 94 % 1013,2 hPa 0,0 l/m 0 min 0 min 10 W/m 22,5 km/h (4 Bft) 100,00 %
28.10.2018 07:48 2,4 C 2,2 C 2,2 C 94 % 1013,2 hPa 0,0 l/m 0 min 0 min 10 W/m 19,3 km/h (3 Bft) 93,62 %
28.10.2018 07:50 2,4 C 2,2 C 2,2 C 94 % 1013,2 hPa 0,0 l/m 0 min 0 min 11 W/m 16,1 km/h (3 Bft) 97,83 %
28.10.2018 07:52 2,4 C 2,2 C 2,2 C 94 % 1013,2 hPa 0,0 l/m 0 min 0 min 11 W/m 12,9 km/h (3 Bft) 100,00 %
28.10.2018 07:54 2,4 C 2,2 C 2,2 C 94 % 1013,3 hPa 0,0 l/m 0 min 0 min 13 W/m 12,9 km/h (3 Bft) 97,87 %
28.10.2018 07:56 2,4 C 2,2 C 2,2 C 94 % 1013,3 hPa 0,0 l/m 0 min 0 min 16 W/m 9,7 km/h (2 Bft) 100,00 %
28.10.2018 07:58 2,4 C 2,2 C 2,2 C 94 % 1013,2 hPa 0,0 l/m 0 min 0 min 16 W/m 16,1 km/h (3 Bft) 100,00 %
28.10.2018 08:00 2,4 C 2,2 C 2,2 C 94 % 1013,2 hPa 0,0 l/m 0 min 0 min 20 W/m 25,7 km/h (4 Bft) 100,00 %
28.10.2018 08:02 2,4 C 2,2 C 2,2 C 94 % 1013,2 hPa 0,0 l/m 0 min 0 min 21 W/m 12,9 km/h (3 Bft) 100,00 %
28.10.2018 08:04 2,4 C 2,2 C 2,2 C 94 % 1013,2 hPa 0,0 l/m 0 min 0 min 21 W/m 12,9 km/h (3 Bft) 97,87 %
28.10.2018 08:08 2,4 C 2,2 C 2,2 C 94 % 1013,2 hPa 0,0 l/m 0 min 0 min 25 W/m 16,1 km/h (3 Bft) 99,01 %
28.10.2018 08:10 2,4 C 2,2 C 2,2 C 94 % 1013,3 hPa 0,0 l/m 0 min 0 min 26 W/m 6,4 km/h (2 Bft) 95,74 %
28.10.2018 08:12 2,4 C 2,2 C 2,2 C 94 % 1013,4 hPa 0,0 l/m 0 min 0 min 28 W/m 16,1 km/h (3 Bft) 95,74 %
28.10.2018 08:14 2,4 C 2,2 C 2,2 C 94 % 1013,4 hPa 0,0 l/m 0 min 0 min 30 W/m 6,4 km/h (2 Bft) 97,83 %
28.10.2018 08:16 2,4 C 2,2 C 2,2 C 94 % 1013,3 hPa 0,0 l/m 0 min 0 min 33 W/m 9,7 km/h (2 Bft) 97,87 %
28.10.2018 08:18 2,4 C 2,2 C 2,2 C 94 % 1013,3 hPa 0,0 l/m 0 min 0 min 35 W/m 6,4 km/h (2 Bft) 97,87 %
28.10.2018 08:20 2,4 C 2,2 C 2,2 C 94 % 1013,5 hPa 0,0 l/m 0 min 0 min 39 W/m 12,9 km/h (3 Bft) 97,87 %
28.10.2018 08:22 2,4 C 2,2 C 2,2 C 94 % 1013,4 hPa 0,0 l/m 0 min 0 min 49 W/m 16,1 km/h (3 Bft) 97,87 %
28.10.2018 08:24 2,4 C 2,8 C 2,2 C 94 % 1013,5 hPa 0,0 l/m 0 min 0 min 56 W/m 12,9 km/h (3 Bft) 97,83 %
28.10.2018 08:26 2,4 C 2,8 C 2,2 C 94 % 1013,4 hPa 0,0 l/m 0 min 0 min 66 W/m 9,7 km/h (2 Bft) 97,87 %
28.10.2018 08:28 2,5 C 2,8 C 2,2 C 94 % 1013,4 hPa 0,0 l/m 0 min 0 min 69 W/m 12,9 km/h (3 Bft) 97,87 %
28.10.2018 08:30 2,5 C 2,8 C 2,2 C 94 % 1013,4 hPa 0,0 l/m 0 min 0 min 68 W/m 9,7 km/h (2 Bft) 95,74 %
28.10.2018 08:32 2,5 C 2,8 C 2,2 C 94 % 1013,4 hPa 0,0 l/m 0 min 0 min 73 W/m 6,4 km/h (2 Bft) 97,87 %
28.10.2018 08:34 2,5 C 2,8 C 2,2 C 94 % 1013,3 hPa 0,0 l/m 0 min 0 min 76 W/m 6,4 km/h (2 Bft) 97,87 %
28.10.2018 08:38 2,6 C 3,3 C 2,2 C 94 % 1013,3 hPa 0,0 l/m 0 min 0 min 78 W/m 12,9 km/h (3 Bft) 93,55 %
28.10.2018 08:40 2,6 C 3,3 C 2,8 C 94 % 1013,4 hPa 0,0 l/m 0 min 0 min 81 W/m 3,2 km/h (1 Bft) 95,74 %
28.10.2018 08:42 2,6 C 3,3 C 2,8 C 94 % 1013,4 hPa 0,0 l/m 0 min 0 min 79 W/m 9,7 km/h (2 Bft) 93,62 %
28.10.2018 08:44 2,7 C 3,3 C 2,8 C 94 % 1013,1 hPa 0,0 l/m 0 min 0 min 82 W/m 9,7 km/h (2 Bft) 93,62 %
28.10.2018 08:46 2,7 C 3,3 C 2,8 C 94 % 1013,1 hPa 0,0 l/m 0 min 0 min 85 W/m 12,9 km/h (3 Bft) 95,74 %
28.10.2018 08:48 2,7 C 3,3 C 2,8 C 94 % 1013,1 hPa 0,0 l/m 0 min 0 min 87 W/m 12,9 km/h (3 Bft) 95,65 %
28.10.2018 08:50 2,7 C 3,3 C 2,8 C 94 % 1012,9 hPa 0,0 l/m 0 min 0 min 85 W/m 12,9 km/h (3 Bft) 95,74 %
28.10.2018 08:52 2,7 C 3,3 C 2,8 C 94 % 1013,0 hPa 0,0 l/m 0 min 0 min 84 W/m 16,1 km/h (3 Bft) 95,74 %
28.10.2018 08:54 2,8 C 2,8 C 2,8 C 94 % 1013,2 hPa 0,0 l/m 0 min 0 min 86 W/m 22,5 km/h (4 Bft) 95,74 %
28.10.2018 08:56 2,8 C 3,3 C 2,8 C 94 % 1013,2 hPa 0,0 l/m 0 min 0 min 88 W/m 12,9 km/h (3 Bft) 95,74 %
28.10.2018 08:58 2,8 C 3,3 C 2,8 C 94 % 1013,2 hPa 0,0 l/m 0 min 0 min 90 W/m 6,4 km/h (2 Bft) 93,62 %
28.10.2018 09:00 2,8 C 3,3 C 2,8 C 95 % 1013,2 hPa 0,0 l/m 0 min 0 min 97 W/m 16,1 km/h (3 Bft) 91,30 %
28.10.2018 09:02 2,8 C 3,3 C 2,8 C 95 % 1013,2 hPa 0,0 l/m 0 min 0 min 100 W/m 19,3 km/h (3 Bft) 93,62 %
28.10.2018 09:04 2,8 C 3,3 C 2,8 C 95 % 1013,2 hPa 0,0 l/m 0 min 0 min 109 W/m 9,7 km/h (2 Bft) 93,62 %
28.10.2018 09:08 2,9 C 3,3 C 2,8 C 95 % 1013,3 hPa 0,0 l/m 0 min 0 min 113 W/m 16,1 km/h (3 Bft) 93,75 %
28.10.2018 09:10 2,9 C 3,9 C 2,8 C 95 % 1013,3 hPa 0,0 l/m 0 min 0 min 115 W/m 9,7 km/h (2 Bft) 95,74 %
28.10.2018 09:12 2,9 C 3,9 C 2,8 C 94 % 1013,2 hPa 0,0 l/m 0 min 0 min 117 W/m 6,4 km/h (2 Bft) 93,48 %
28.10.2018 09:14 2,9 C 3,9 C 2,8 C 94 % 1013,3 hPa 0,0 l/m 0 min 0 min 116 W/m 12,9 km/h (3 Bft) 91,49 %
28.10.2018 09:16 3,0 C 3,9 C 2,8 C 94 % 1013,3 hPa 0,0 l/m 0 min 0 min 117 W/m 9,7 km/h (2 Bft) 91,49 %
28.10.2018 09:18 3,0 C 3,9 C 3,3 C 94 % 1013,3 hPa 0,0 l/m 0 min 0 min 114 W/m 9,7 km/h (2 Bft) 93,62 %
28.10.2018 09:20 3,1 C 3,9 C 2,8 C 94 % 1013,3 hPa 0,0 l/m 0 min 0 min 112 W/m 9,7 km/h (2 Bft) 95,74 %
28.10.2018 09:22 3,1 C 3,9 C 3,3 C 94 % 1013,3 hPa 0,0 l/m 0 min 0 min 112 W/m 9,7 km/h (2 Bft) 95,65 %
28.10.2018 09:24 3,2 C 3,9 C 3,3 C 95 % 1013,3 hPa 0,0 l/m 0 min 0 min 115 W/m 12,9 km/h (3 Bft) 95,74 %
28.10.2018 09:26 3,2 C 3,9 C 3,3 C 95 % 1013,5 hPa 0,0 l/m 0 min 0 min 131 W/m 6,4 km/h (2 Bft) 97,87 %
28.10.2018 09:28 3,2 C 4,4 C 3,3 C 94 % 1013,4 hPa 0,0 l/m 0 min 0 min 131 W/m 9,7 km/h (2 Bft) 95,74 %
28.10.2018 09:30 3,2 C 4,4 C 3,3 C 94 % 1013,5 hPa 0,0 l/m 0 min 0 min 120 W/m 12,9 km/h (3 Bft) 97,87 %
28.10.2018 09:32 3,3 C 4,4 C 3,3 C 94 % 1013,4 hPa 0,0 l/m 0 min 0 min 117 W/m 16,1 km/h (3 Bft) 93,62 %
28.10.2018 09:34 3,3 C 4,4 C 3,3 C 94 % 1013,5 hPa 0,0 l/m 0 min 0 min 113 W/m 16,1 km/h (3 Bft) 97,83 %
28.10.2018 09:38 3,4 C 4,4 C 3,3 C 94 % 1013,5 hPa 0,0 l/m 0 min 0 min 122 W/m 16,1 km/h (3 Bft) 97,87 %
28.10.2018 09:40 3,4 C 4,4 C 3,3 C 94 % 1013,4 hPa 0,0 l/m 0 min 0 min 134 W/m 19,3 km/h (3 Bft) 97,87 %
28.10.2018 09:42 3,4 C 4,4 C 3,3 C 94 % 1013,4 hPa 0,0 l/m 2 min 0 min 158 W/m 12,9 km/h (3 Bft) 100,00 %
28.10.2018 09:44 3,5 C 5,0 C 3,3 C 94 % 1013,4 hPa 0,0 l/m 2 min 0 min 157 W/m 6,4 km/h (2 Bft) 100,00 %
28.10.2018 09:46 3,5 C 5,0 C 3,3 C 94 % 1013,5 hPa 0,0 l/m 0 min 0 min 144 W/m 9,7 km/h (2 Bft) 100,00 %
28.10.2018 09:48 3,6 C 5,0 C 3,3 C 94 % 1013,6 hPa 0,0 l/m 0 min 0 min 152 W/m 9,7 km/h (2 Bft) 97,87 %
28.10.2018 09:50 3,6 C 5,0 C 3,9 C 94 % 1013,6 hPa 0,0 l/m 0 min 0 min 149 W/m 12,9 km/h (3 Bft) 97,87 %
28.10.2018 09:52 3,7 C 5,0 C 3,9 C 94 % 1013,5 hPa 0,0 l/m 0 min 0 min 155 W/m 16,1 km/h (3 Bft) 100,00 %
28.10.2018 09:54 3,7 C 5,0 C 3,3 C 94 % 1013,5 hPa 0,0 l/m 0 min 0 min 135 W/m 12,9 km/h (3 Bft) 100,00 %
28.10.2018 09:56 3,8 C 5,0 C 3,3 C 94 % 1013,4 hPa 0,0 l/m 0 min 0 min 128 W/m 16,1 km/h (3 Bft) 97,87 %
28.10.2018 09:58 3,8 C 4,4 C 3,3 C 94 % 1013,3 hPa 0,0 l/m 0 min 0 min 115 W/m 22,5 km/h (4 Bft) 100,00 %
28.10.2018 10:00 3,8 C 5,0 C 3,3 C 94 % 1013,3 hPa 0,0 l/m 0 min 0 min 116 W/m 9,7 km/h (2 Bft) 100,00 %
28.10.2018 10:02 3,8 C 4,4 C 3,3 C 94 % 1013,6 hPa 0,0 l/m 0 min 0 min 97 W/m 12,9 km/h (3 Bft) 100,00 %
28.10.2018 10:04 3,8 C 4,4 C 3,3 C 94 % 1013,5 hPa 0,0 l/m 0 min 0 min 99 W/m 16,1 km/h (3 Bft) 100,00 %
28.10.2018 10:08 3,9 C 4,4 C 3,3 C 93 % 1013,5 hPa 0,0 l/m 0 min 0 min 106 W/m 12,9 km/h (3 Bft) 98,99 %
28.10.2018 10:10 3,9 C 4,4 C 3,3 C 93 % 1013,5 hPa 0,0 l/m 0 min 0 min 107 W/m 19,3 km/h (3 Bft) 100,00 %
28.10.2018 10:12 3,9 C 4,4 C 3,3 C 93 % 1013,4 hPa 0,0 l/m 0 min 0 min 110 W/m 9,7 km/h (2 Bft) 100,00 %
28.10.2018 10:14 3,9 C 4,4 C 3,3 C 93 % 1013,4 hPa 0,0 l/m 0 min 0 min 106 W/m 16,1 km/h (3 Bft) 100,00 %
28.10.2018 10:16 3,9 C 4,4 C 3,3 C 93 % 1013,5 hPa 0,0 l/m 0 min 0 min 110 W/m 12,9 km/h (3 Bft) 100,00 %
28.10.2018 10:18 3,9 C 4,4 C 3,3 C 93 % 1013,4 hPa 0,0 l/m 0 min 0 min 104 W/m 12,9 km/h (3 Bft) 93,62 %
28.10.2018 10:20 3,9 C 4,4 C 3,3 C 93 % 1013,4 hPa 0,0 l/m 0 min 0 min 108 W/m 25,7 km/h (4 Bft) 100,00 %
28.10.2018 10:22 3,9 C 4,4 C 3,3 C 92 % 1013,3 hPa 0,0 l/m 0 min 0 min 117 W/m 22,5 km/h (4 Bft) 100,00 %
28.10.2018 10:24 3,9 C 4,4 C 3,3 C 92 % 1013,3 hPa 0,0 l/m 0 min 0 min 127 W/m 16,1 km/h (3 Bft) 100,00 %
28.10.2018 10:26 3,9 C 5,0 C 3,3 C 92 % 1013,3 hPa 0,0 l/m 0 min 0 min 135 W/m 9,7 km/h (2 Bft) 100,00 %
28.10.2018 10:28 3,9 C 5,0 C 3,3 C 92 % 1013,3 hPa 0,0 l/m 0 min 0 min 140 W/m 19,3 km/h (3 Bft) 97,92 %
28.10.2018 10:30 4,0 C 5,0 C 3,3 C 92 % 1013,3 hPa 0,0 l/m 0 min 0 min 152 W/m 16,1 km/h (3 Bft) 100,00 %
28.10.2018 10:32 4,0 C 5,6 C 3,9 C 92 % 1013,4 hPa 0,0 l/m 0 min 0 min 153 W/m 22,5 km/h (4 Bft) 100,00 %
28.10.2018 10:34 4,0 C 5,6 C 3,3 C 91 % 1013,4 hPa 0,0 l/m 0 min 0 min 153 W/m 22,5 km/h (4 Bft) 100,00 %
28.10.2018 10:38 4,1 C 6,1 C 3,3 C 91 % 1013,3 hPa 0,0 l/m 0 min 0 min 165 W/m 19,3 km/h (3 Bft) 100,00 %
28.10.2018 10:40 4,1 C 6,1 C 3,9 C 91 % 1013,3 hPa 0,0 l/m 0 min 0 min 170 W/m 12,9 km/h (3 Bft) 100,00 %
28.10.2018 10:42 4,1 C 6,7 C 3,9 C 91 % 1013,2 hPa 0,0 l/m 0 min 0 min 162 W/m 25,7 km/h (4 Bft) 100,00 %
28.10.2018 10:44 4,1 C 6,1 C 3,9 C 90 % 1013,2 hPa 0,0 l/m 0 min 0 min 157 W/m 12,9 km/h (3 Bft) 100,00 %
28.10.2018 10:46 4,2 C 6,1 C 3,9 C 90 % 1013,3 hPa 0,0 l/m 0 min 0 min 156 W/m 16,1 km/h (3 Bft) 100,00 %
28.10.2018 10:48 4,2 C 6,1 C 3,9 C 90 % 1013,3 hPa 0,0 l/m 0 min 0 min 152 W/m 19,3 km/h (3 Bft) 97,83 %
28.10.2018 10:50 4,2 C 6,1 C 3,9 C 90 % 1013,4 hPa 0,0 l/m 0 min 0 min 161 W/m 16,1 km/h (3 Bft) 100,00 %
28.10.2018 10:52 4,2 C 6,1 C 3,9 C 89 % 1013,4 hPa 0,0 l/m 0 min 0 min 159 W/m 25,7 km/h (4 Bft) 100,00 %
28.10.2018 10:54 4,3 C 6,1 C 3,9 C 89 % 1013,3 hPa 0,0 l/m 0 min 0 min 165 W/m 16,1 km/h (3 Bft) 97,14 %
28.10.2018 10:56 4,3 C 6,1 C 3,9 C 89 % 1013,4 hPa 0,0 l/m 0 min 0 min 162 W/m 12,9 km/h (3 Bft) 100,00 %
28.10.2018 10:58 4,3 C 6,1 C 3,9 C 89 % 1013,5 hPa 0,0 l/m 0 min 0 min 154 W/m 12,9 km/h (3 Bft) 100,00 %
28.10.2018 11:00 4,4 C 5,6 C 3,9 C 89 % 1013,5 hPa 0,0 l/m 0 min 0 min 148 W/m 16,1 km/h (3 Bft) 100,00 %
28.10.2018 11:02 4,4 C 5,6 C 3,9 C 89 % 1013,5 hPa 0,0 l/m 0 min 0 min 148 W/m 22,5 km/h (4 Bft) 100,00 %
28.10.2018 11:04 4,4 C 5,0 C 3,9 C 89 % 1013,6 hPa 0,0 l/m 0 min 0 min 148 W/m 22,5 km/h (4 Bft) 100,00 %
28.10.2018 11:08 4,4 C 5,0 C 3,9 C 88 % 1013,7 hPa 0,0 l/m 0 min 0 min 154 W/m 29,0 km/h (5 Bft) 97,87 %
28.10.2018 11:10 4,4 C 5,0 C 3,9 C 88 % 1013,7 hPa 0,0 l/m 0 min 0 min 159 W/m 19,3 km/h (3 Bft) 100,00 %
28.10.2018 11:12 4,4 C 5,0 C 3,9 C 88 % 1013,6 hPa 0,0 l/m 0 min 0 min 167 W/m 29,0 km/h (5 Bft) 93,62 %
28.10.2018 11:14 4,4 C 5,0 C 3,9 C 87 % 1013,6 hPa 0,0 l/m 0 min 0 min 171 W/m 19,3 km/h (3 Bft) 95,74 %
28.10.2018 11:16 4,4 C 5,0 C 3,9 C 87 % 1013,5 hPa 0,0 l/m 0 min 0 min 177 W/m 19,3 km/h (3 Bft) 97,83 %
28.10.2018 11:18 4,4 C 5,6 C 3,9 C 87 % 1013,4 hPa 0,0 l/m 0 min 0 min 181 W/m 19,3 km/h (3 Bft) 97,87 %
28.10.2018 11:20 4,5 C 5,6 C 3,9 C 87 % 1013,3 hPa 0,0 l/m 0 min 0 min 188 W/m 22,5 km/h (4 Bft) 96,61 %
28.10.2018 11:22 4,5 C 5,6 C 3,9 C 87 % 1013,3 hPa 0,0 l/m 0 min 0 min 193 W/m 22,5 km/h (4 Bft) 97,14 %
28.10.2018 11:24 4,5 C 5,6 C 3,9 C 87 % 1013,3 hPa 0,0 l/m 0 min 0 min 194 W/m 22,5 km/h (4 Bft) 95,74 %
28.10.2018 11:26 4,6 C 5,6 C 3,9 C 87 % 1013,3 hPa 0,0 l/m 0 min 0 min 197 W/m 16,1 km/h (3 Bft) 95,65 %
28.10.2018 11:28 4,6 C 5,6 C 3,9 C 87 % 1013,3 hPa 0,0 l/m 0 min 0 min 197 W/m 19,3 km/h (3 Bft) 91,49 %
28.10.2018 11:30 4,6 C 5,6 C 3,9 C 87 % 1013,4 hPa 0,0 l/m 0 min 0 min 195 W/m 16,1 km/h (3 Bft) 93,62 %
28.10.2018 11:32 4,6 C 5,6 C 3,9 C 87 % 1013,5 hPa 0,0 l/m 0 min 0 min 194 W/m 22,5 km/h (4 Bft) 93,62 %
28.10.2018 11:34 4,7 C 5,6 C 3,9 C 86 % 1013,4 hPa 0,0 l/m 0 min 0 min 201 W/m 22,5 km/h (4 Bft) 93,62 %
28.10.2018 11:38 4,7 C 5,6 C 4,4 C 86 % 1013,3 hPa 0,0 l/m 4 min 0 min 216 W/m 25,7 km/h (4 Bft) 92,47 %
28.10.2018 11:40 4,7 C 5,6 C 4,4 C 86 % 1013,4 hPa 0,0 l/m 2 min 0 min 231 W/m 32,2 km/h (5 Bft) 93,62 %
28.10.2018 11:42 4,8 C 5,6 C 4,4 C 86 % 1013,5 hPa 0,0 l/m 2 min 0 min 238 W/m 25,7 km/h (4 Bft) 93,62 %
28.10.2018 11:44 4,8 C 5,6 C 4,4 C 85 % 1013,6 hPa 0,0 l/m 2 min 0 min 228 W/m 12,9 km/h (3 Bft) 93,62 %
28.10.2018 11:46 4,8 C 5,6 C 4,4 C 85 % 1013,6 hPa 0,0 l/m 2 min 0 min 239 W/m 19,3 km/h (3 Bft) 93,62 %
28.10.2018 11:48 4,8 C 5,6 C 4,4 C 85 % 1013,6 hPa 0,0 l/m 2 min 0 min 221 W/m 32,2 km/h (5 Bft) 91,49 %
28.10.2018 11:50 4,9 C 5,6 C 4,4 C 85 % 1013,6 hPa 0,0 l/m 2 min 0 min 233 W/m 29,0 km/h (5 Bft) 94,83 %
28.10.2018 11:52 4,9 C 5,6 C 4,4 C 85 % 1013,6 hPa 0,0 l/m 2 min 0 min 223 W/m 12,9 km/h (3 Bft) 91,43 %
28.10.2018 11:54 4,9 C 5,6 C 4,4 C 85 % 1013,5 hPa 0,0 l/m 2 min 0 min 220 W/m 9,7 km/h (2 Bft) 93,62 %
28.10.2018 11:56 4,9 C 5,6 C 4,4 C 85 % 1013,5 hPa 0,0 l/m 2 min 0 min 218 W/m 12,9 km/h (3 Bft) 87,23 %
28.10.2018 11:58 5,0 C 5,6 C 4,4 C 85 % 1013,7 hPa 0,0 l/m 2 min 0 min 225 W/m 29,0 km/h (5 Bft) 93,62 %
28.10.2018 12:00 5,0 C 5,6 C 4,4 C 84 % 1013,6 hPa 0,0 l/m 2 min 0 min 228 W/m 12,9 km/h (3 Bft) 93,62 %
28.10.2018 12:02 5,1 C 5,6 C 4,4 C 84 % 1013,5 hPa 0,0 l/m 2 min 0 min 225 W/m 29,0 km/h (5 Bft) 91,30 %
28.10.2018 12:04 5,1 C 6,1 C 4,4 C 84 % 1013,6 hPa 0,0 l/m 2 min 0 min 222 W/m 12,9 km/h (3 Bft) 93,62 %
28.10.2018 12:08 5,1 C 6,1 C 4,4 C 84 % 1013,5 hPa 0,0 l/m 4 min 0 min 215 W/m 12,9 km/h (3 Bft) 93,62 %
28.10.2018 12:10 5,2 C 6,1 C 4,4 C 84 % 1013,4 hPa 0,0 l/m 0 min 0 min 214 W/m 25,7 km/h (4 Bft) 95,74 %
28.10.2018 12:12 5,2 C 6,1 C 4,4 C 84 % 1013,3 hPa 0,0 l/m 2 min 0 min 217 W/m 16,1 km/h (3 Bft) 97,87 %
28.10.2018 12:14 5,2 C 6,1 C 4,4 C 83 % 1013,3 hPa 0,0 l/m 2 min 0 min 218 W/m 22,5 km/h (4 Bft) 95,65 %
28.10.2018 12:16 5,3 C 6,1 C 5,0 C 83 % 1013,3 hPa 0,0 l/m 0 min 0 min 211 W/m 22,5 km/h (4 Bft) 100,00 %
28.10.2018 12:18 5,3 C 6,1 C 5,0 C 83 % 1013,4 hPa 0,0 l/m 0 min 0 min 204 W/m 16,1 km/h (3 Bft) 100,00 %
28.10.2018 12:20 5,3 C 5,6 C 5,0 C 82 % 1013,2 hPa 0,0 l/m 0 min 0 min 200 W/m 25,7 km/h (4 Bft) 95,74 %
28.10.2018 12:22 5,3 C 6,1 C 5,0 C 82 % 1013,2 hPa 0,0 l/m 0 min 0 min 199 W/m 12,9 km/h (3 Bft) 95,74 %
28.10.2018 12:24 5,4 C 6,1 C 5,0 C 82 % 1013,2 hPa 0,0 l/m 0 min 0 min 198 W/m 12,9 km/h (3 Bft) 95,74 %
28.10.2018 12:26 5,4 C 6,1 C 5,0 C 82 % 1013,3 hPa 0,0 l/m 0 min 0 min 199 W/m 16,1 km/h (3 Bft) 100,00 %
28.10.2018 12:28 5,4 C 6,1 C 5,0 C 82 % 1013,3 hPa 0,0 l/m 0 min 0 min 199 W/m 16,1 km/h (3 Bft) 100,00 %
28.10.2018 12:30 5,4 C 6,1 C 5,0 C 82 % 1013,3 hPa 0,0 l/m 0 min 0 min 197 W/m 19,3 km/h (3 Bft) 100,00 %
28.10.2018 12:32 5,5 C 6,1 C 5,0 C 82 % 1013,3 hPa 0,0 l/m 0 min 0 min 193 W/m 19,3 km/h (3 Bft) 100,00 %
28.10.2018 12:34 5,5 C 6,1 C 5,0 C 81 % 1013,2 hPa 0,0 l/m 0 min 0 min 190 W/m 16,1 km/h (3 Bft) 97,87 %
28.10.2018 12:38 5,6 C 6,1 C 5,0 C 81 % 1013,4 hPa 0,0 l/m 0 min 0 min 188 W/m 25,7 km/h (4 Bft) 98,92 %
28.10.2018 12:40 5,6 C 6,1 C 5,0 C 81 % 1013,5 hPa 0,0 l/m 0 min 0 min 186 W/m 16,1 km/h (3 Bft) 100,00 %
28.10.2018 12:42 5,6 C 6,1 C 5,0 C 81 % 1013,6 hPa 0,0 l/m 0 min 0 min 185 W/m 12,9 km/h (3 Bft) 100,00 %
28.10.2018 12:44 5,7 C 6,1 C 5,0 C 81 % 1013,6 hPa 0,0 l/m 0 min 0 min 181 W/m 12,9 km/h (3 Bft) 100,00 %
28.10.2018 12:46 5,7 C 6,1 C 5,0 C 81 % 1013,6 hPa 0,0 l/m 0 min 0 min 178 W/m 12,9 km/h (3 Bft) 97,87 %
28.10.2018 12:48 5,7 C 6,1 C 5,0 C 81 % 1013,6 hPa 0,0 l/m 0 min 0 min 178 W/m 19,3 km/h (3 Bft) 100,00 %
28.10.2018 12:50 5,7 C 6,1 C 5,0 C 80 % 1013,7 hPa 0,0 l/m 0 min 0 min 179 W/m 19,3 km/h (3 Bft) 100,00 %
28.10.2018 12:52 5,8 C 6,1 C 5,0 C 80 % 1013,7 hPa 0,0 l/m 0 min 0 min 179 W/m 16,1 km/h (3 Bft) 100,00 %
28.10.2018 12:54 5,8 C 6,1 C 5,0 C 79 % 1013,6 hPa 0,0 l/m 0 min 0 min 183 W/m 22,5 km/h (4 Bft) 100,00 %
28.10.2018 12:56 5,8 C 6,1 C 5,0 C 79 % 1013,7 hPa 0,0 l/m 0 min 0 min 191 W/m 19,3 km/h (3 Bft) 100,00 %
28.10.2018 12:58 5,8 C 6,1 C 5,0 C 79 % 1013,7 hPa 0,0 l/m 0 min 0 min 204 W/m 12,9 km/h (3 Bft) 100,00 %
28.10.2018 13:00 5,8 C 6,1 C 5,0 C 79 % 1013,7 hPa 0,0 l/m 2 min 0 min 217 W/m 16,1 km/h (3 Bft) 100,00 %
28.10.2018 13:02 5,9 C 6,7 C 5,6 C 79 % 1013,7 hPa 0,0 l/m 2 min 0 min 227 W/m 16,1 km/h (3 Bft) 100,00 %
28.10.2018 13:04 5,9 C 6,7 C 5,6 C 79 % 1013,7 hPa 0,0 l/m 2 min 0 min 245 W/m 19,3 km/h (3 Bft) 97,87 %
28.10.2018 13:08 5,9 C 6,7 C 5,6 C 78 % 1013,5 hPa 0,0 l/m 4 min 0 min 281 W/m 25,7 km/h (4 Bft) 100,00 %
28.10.2018 13:10 6,0 C 6,7 C 5,6 C 77 % 1013,4 hPa 0,0 l/m 2 min 0 min 284 W/m 22,5 km/h (4 Bft) 100,00 %
28.10.2018 13:12 6,0 C 6,7 C 5,6 C 77 % 1013,3 hPa 0,0 l/m 2 min 0 min 294 W/m 16,1 km/h (3 Bft) 100,00 %
28.10.2018 13:14 6,1 C 6,7 C 5,6 C 77 % 1013,3 hPa 0,0 l/m 2 min 0 min 276 W/m 19,3 km/h (3 Bft) 100,00 %
28.10.2018 13:16 6,1 C 6,7 C 5,6 C 77 % 1013,3 hPa 0,0 l/m 2 min 0 min 208 W/m 29,0 km/h (5 Bft) 97,87 %
28.10.2018 13:18 6,1 C 6,7 C 5,6 C 77 % 1013,3 hPa 0,0 l/m 0 min 0 min 177 W/m 16,1 km/h (3 Bft) 100,00 %
28.10.2018 13:20 6,2 C 6,7 C 5,6 C 77 % 1013,3 hPa 0,0 l/m 0 min 0 min 150 W/m 29,0 km/h (5 Bft) 97,87 %
28.10.2018 13:22 6,2 C 7,2 C 5,6 C 76 % 1013,4 hPa 0,0 l/m 0 min 0 min 132 W/m 16,1 km/h (3 Bft) 100,00 %
28.10.2018 13:24 6,2 C 7,2 C 5,6 C 76 % 1013,3 hPa 0,0 l/m 0 min 0 min 141 W/m 22,5 km/h (4 Bft) 97,83 %
28.10.2018 13:26 6,3 C 7,2 C 5,6 C 76 % 1013,3 hPa 0,0 l/m 0 min 0 min 127 W/m 19,3 km/h (3 Bft) 100,00 %
28.10.2018 13:28 6,3 C 7,2 C 5,6 C 76 % 1013,3 hPa 0,0 l/m 0 min 0 min 118 W/m 19,3 km/h (3 Bft) 100,00 %
28.10.2018 13:30 6,4 C 7,2 C 5,6 C 76 % 1013,3 hPa 0,0 l/m 0 min 0 min 126 W/m 35,4 km/h (5 Bft) 100,00 %
28.10.2018 13:32 6,4 C 6,7 C 5,6 C 76 % 1013,2 hPa 0,0 l/m 0 min 0 min 129 W/m 38,6 km/h (5 Bft) 100,00 %
28.10.2018 13:34 6,4 C 7,2 C 5,6 C 76 % 1013,2 hPa 0,0 l/m 0 min 0 min 138 W/m 22,5 km/h (4 Bft) 97,87 %
28.10.2018 13:38 6,6 C 7,2 C 5,6 C 76 % 1013,1 hPa 0,0 l/m 0 min 0 min 133 W/m 19,3 km/h (3 Bft) 100,00 %
28.10.2018 13:40 6,6 C 7,2 C 5,6 C 76 % 1013,0 hPa 0,0 l/m 0 min 0 min 148 W/m 6,4 km/h (2 Bft) 100,00 %
28.10.2018 13:42 6,7 C 7,2 C 5,6 C 76 % 1012,9 hPa 0,0 l/m 0 min 0 min 127 W/m 19,3 km/h (3 Bft) 100,00 %
28.10.2018 13:44 6,7 C 7,2 C 5,6 C 76 % 1012,9 hPa 0,0 l/m 0 min 0 min 125 W/m 19,3 km/h (3 Bft) 97,87 %
28.10.2018 13:46 6,7 C 6,7 C 5,6 C 76 % 1012,8 hPa 0,0 l/m 0 min 0 min 123 W/m 22,5 km/h (4 Bft) 97,87 %
28.10.2018 13:48 6,7 C 6,7 C 5,6 C 75 % 1012,8 hPa 0,0 l/m 0 min 0 min 112 W/m 32,2 km/h (5 Bft) 100,00 %
28.10.2018 13:50 6,7 C 6,1 C 5,0 C 74 % 1012,7 hPa 0,0 l/m 0 min 0 min 92 W/m 22,5 km/h (4 Bft) 98,31 %
28.10.2018 13:52 6,6 C 6,1 C 5,0 C 74 % 1012,7 hPa 0,0 l/m 0 min 0 min 98 W/m 19,3 km/h (3 Bft) 94,29 %
28.10.2018 13:54 6,6 C 6,1 C 5,0 C 73 % 1012,6 hPa 0,0 l/m 0 min 0 min 122 W/m 22,5 km/h (4 Bft) 97,87 %
28.10.2018 13:56 6,5 C 6,1 C 5,0 C 73 % 1012,6 hPa 0,0 l/m 0 min 0 min 79 W/m 22,5 km/h (4 Bft) 93,62 %
28.10.2018 13:58 6,5 C 6,1 C 5,0 C 73 % 1012,6 hPa 0,0 l/m 0 min 0 min 74 W/m 16,1 km/h (3 Bft) 97,83 %
28.10.2018 14:00 6,4 C 6,1 C 5,0 C 73 % 1012,6 hPa 0,0 l/m 2 min 0 min 305 W/m 19,3 km/h (3 Bft) 95,74 %
28.10.2018 14:02 6,4 C 6,7 C 5,0 C 73 % 1012,6 hPa 0,0 l/m 2 min 0 min 368 W/m 19,3 km/h (3 Bft) 97,87 %
28.10.2018 14:04 6,4 C 6,7 C 5,6 C 73 % 1012,6 hPa 0,0 l/m 2 min 0 min 353 W/m 16,1 km/h (3 Bft) 95,74 %
28.10.2018 14:08 6,4 C 6,7 C 5,6 C 73 % 1012,6 hPa 0,0 l/m 4 min 0 min 347 W/m 22,5 km/h (4 Bft) 95,74 %
28.10.2018 14:10 6,4 C 6,7 C 5,6 C 73 % 1012,6 hPa 0,0 l/m 2 min 0 min 370 W/m 19,3 km/h (3 Bft) 95,74 %
28.10.2018 14:12 6,4 C 6,7 C 5,6 C 73 % 1012,6 hPa 0,0 l/m 2 min 0 min 342 W/m 12,9 km/h (3 Bft) 93,48 %
28.10.2018 14:14 6,5 C 6,7 C 5,6 C 73 % 1012,6 hPa 0,0 l/m 2 min 0 min 351 W/m 32,2 km/h (5 Bft) 93,62 %
28.10.2018 14:16 6,5 C 6,7 C 5,6 C 73 % 1012,6 hPa 0,0 l/m 2 min 0 min 343 W/m 16,1 km/h (3 Bft) 95,74 %
28.10.2018 14:18 6,5 C 6,7 C 5,6 C 73 % 1012,5 hPa 0,0 l/m 2 min 0 min 355 W/m 32,2 km/h (5 Bft) 93,62 %
28.10.2018 14:20 6,5 C 6,7 C 5,6 C 73 % 1012,3 hPa 0,0 l/m 2 min 0 min 361 W/m 19,3 km/h (3 Bft) 96,55 %
28.10.2018 14:22 6,6 C 6,7 C 5,6 C 73 % 1012,3 hPa 0,0 l/m 2 min 0 min 374 W/m 22,5 km/h (4 Bft) 97,14 %
28.10.2018 14:24 6,6 C 6,7 C 5,6 C 73 % 1012,3 hPa 0,0 l/m 2 min 0 min 362 W/m 51,5 km/h (7 Bft) 95,74 %
28.10.2018 14:26 6,6 C 6,7 C 5,6 C 73 % 1012,3 hPa 0,0 l/m 2 min 0 min 359 W/m 25,7 km/h (4 Bft) 97,87 %
28.10.2018 14:28 6,6 C 6,7 C 5,6 C 73 % 1012,3 hPa 0,0 l/m 2 min 0 min 363 W/m 19,3 km/h (3 Bft) 95,74 %
28.10.2018 14:30 6,7 C 6,7 C 5,6 C 73 % 1012,4 hPa 0,0 l/m 2 min 0 min 349 W/m 19,3 km/h (3 Bft) 97,87 %
28.10.2018 14:32 6,7 C 7,2 C 5,6 C 73 % 1012,5 hPa 0,0 l/m 2 min 0 min 346 W/m 19,3 km/h (3 Bft) 95,74 %
28.10.2018 14:34 6,7 C 7,2 C 5,6 C 73 % 1012,5 hPa 0,0 l/m 2 min 0 min 353 W/m 22,5 km/h (4 Bft) 95,65 %
28.10.2018 14:38 6,8 C 7,2 C 6,1 C 73 % 1012,8 hPa 0,0 l/m 4 min 0 min 362 W/m 19,3 km/h (3 Bft) 95,74 %
28.10.2018 14:40 6,8 C 7,2 C 6,1 C 73 % 1012,9 hPa 0,0 l/m 2 min 0 min 376 W/m 22,5 km/h (4 Bft) 97,83 %
28.10.2018 14:42 6,8 C 7,2 C 6,1 C 73 % 1012,9 hPa 0,0 l/m 2 min 0 min 344 W/m 19,3 km/h (3 Bft) 93,62 %
28.10.2018 14:44 6,8 C 7,2 C 6,1 C 73 % 1012,9 hPa 0,0 l/m 2 min 0 min 355 W/m 16,1 km/h (3 Bft) 93,62 %
28.10.2018 14:46 6,8 C 7,2 C 6,1 C 72 % 1012,8 hPa 0,0 l/m 2 min 0 min 274 W/m 29,0 km/h (5 Bft) 95,65 %
28.10.2018 14:48 6,8 C 6,7 C 5,6 C 72 % 1012,8 hPa 0,0 l/m 2 min 0 min 161 W/m 32,2 km/h (5 Bft) 95,74 %
28.10.2018 14:50 6,8 C 6,1 C 5,6 C 71 % 1012,7 hPa 0,0 l/m 0 min 0 min 105 W/m 32,2 km/h (5 Bft) 95,74 %
28.10.2018 14:52 6,8 C 6,1 C 5,6 C 71 % 1012,6 hPa 0,0 l/m 2 min 0 min 164 W/m 19,3 km/h (3 Bft) 97,87 %
28.10.2018 14:54 6,7 C 6,1 C 5,6 C 71 % 1012,6 hPa 0,0 l/m 2 min 0 min 226 W/m 29,0 km/h (5 Bft) 95,74 %
28.10.2018 14:56 6,7 C 6,1 C 5,6 C 71 % 1012,5 hPa 0,0 l/m 2 min 0 min 265 W/m 16,1 km/h (3 Bft) 93,62 %
28.10.2018 14:58 6,7 C 6,1 C 5,6 C 71 % 1012,5 hPa 0,0 l/m 2 min 0 min 252 W/m 19,3 km/h (3 Bft) 95,65 %
28.10.2018 15:00 6,6 C 6,1 C 5,6 C 72 % 1012,4 hPa 0,0 l/m 2 min 0 min 241 W/m 16,1 km/h (3 Bft) 97,92 %
28.10.2018 15:02 6,6 C 6,1 C 5,6 C 72 % 1012,4 hPa 0,0 l/m 2 min 0 min 258 W/m 22,5 km/h (4 Bft) 97,87 %
28.10.2018 15:04 6,6 C 6,7 C 5,6 C 72 % 1012,4 hPa 0,0 l/m 2 min 0 min 286 W/m 19,3 km/h (3 Bft) 95,74 %
28.10.2018 15:08 6,6 C 6,7 C 5,6 C 73 % 1012,3 hPa 0,0 l/m 4 min 0 min 255 W/m 22,5 km/h (4 Bft) 97,85 %
28.10.2018 15:10 6,6 C 6,1 C 5,6 C 73 % 1012,4 hPa 0,0 l/m 0 min 0 min 83 W/m 38,6 km/h (5 Bft) 97,87 %
28.10.2018 15:12 6,6 C 6,1 C 5,6 C 72 % 1012,4 hPa 0,0 l/m 2 min 0 min 204 W/m 25,7 km/h (4 Bft) 95,74 %
28.10.2018 15:14 6,6 C 6,1 C 5,6 C 72 % 1012,6 hPa 0,0 l/m 2 min 0 min 147 W/m 25,7 km/h (4 Bft) 97,87 %
28.10.2018 15:16 6,6 C 6,1 C 5,6 C 72 % 1012,6 hPa 0,0 l/m 2 min 0 min 220 W/m 16,1 km/h (3 Bft) 93,62 %
28.10.2018 15:18 6,5 C 6,1 C 5,6 C 72 % 1012,5 hPa 0,0 l/m 2 min 0 min 222 W/m 16,1 km/h (3 Bft) 93,62 %
28.10.2018 15:20 6,5 C 6,1 C 5,6 C 73 % 1012,6 hPa 0,0 l/m 2 min 0 min 189 W/m 29,0 km/h (5 Bft) 91,30 %
28.10.2018 15:22 6,5 C 6,1 C 5,6 C 73 % 1012,8 hPa 0,0 l/m 0 min 0 min 97 W/m 25,7 km/h (4 Bft) 98,00 %
28.10.2018 15:24 6,4 C 6,1 C 5,6 C 73 % 1012,9 hPa 0,0 l/m 0 min 0 min 84 W/m 19,3 km/h (3 Bft) 95,74 %
28.10.2018 15:26 6,4 C 6,1 C 5,6 C 72 % 1013,0 hPa 0,0 l/m 0 min 0 min 77 W/m 19,3 km/h (3 Bft) 97,87 %
28.10.2018 15:28 6,4 C 6,1 C 5,0 C 72 % 1012,9 hPa 0,0 l/m 0 min 0 min 70 W/m 25,7 km/h (4 Bft) 97,83 %
28.10.2018 15:30 6,4 C 6,1 C 5,0 C 72 % 1013,0 hPa 0,0 l/m 0 min 0 min 69 W/m 16,1 km/h (3 Bft) 100,00 %
28.10.2018 15:32 6,4 C 5,6 C 5,0 C 72 % 1013,0 hPa 0,0 l/m 0 min 0 min 80 W/m 25,7 km/h (4 Bft) 93,62 %
28.10.2018 15:34 6,4 C 6,1 C 5,0 C 72 % 1013,0 hPa 0,0 l/m 2 min 0 min 129 W/m 16,1 km/h (3 Bft) 97,87 %
28.10.2018 15:38 6,3 C 6,1 C 5,0 C 72 % 1013,1 hPa 0,0 l/m 4 min 0 min 116 W/m 16,1 km/h (3 Bft) 96,81 %
28.10.2018 15:40 6,3 C 6,1 C 5,0 C 73 % 1013,0 hPa 0,0 l/m 0 min 0 min 63 W/m 16,1 km/h (3 Bft) 97,87 %
28.10.2018 15:42 6,3 C 5,6 C 5,0 C 73 % 1013,0 hPa 0,0 l/m 0 min 0 min 54 W/m 12,9 km/h (3 Bft) 97,87 %
28.10.2018 15:44 6,3 C 5,6 C 5,0 C 73 % 1012,9 hPa 0,0 l/m 0 min 0 min 60 W/m 25,7 km/h (4 Bft) 97,83 %
28.10.2018 15:46 6,2 C 5,6 C 5,0 C 73 % 1012,9 hPa 0,0 l/m 0 min 0 min 57 W/m 29,0 km/h (5 Bft) 97,87 %
28.10.2018 15:48 6,2 C 5,6 C 5,0 C 73 % 1012,9 hPa 0,0 l/m 0 min 0 min 53 W/m 25,7 km/h (4 Bft) 95,74 %
28.10.2018 15:50 6,2 C 5,6 C 5,0 C 73 % 1012,8 hPa 0,0 l/m 0 min 0 min 54 W/m 25,7 km/h (4 Bft) 97,87 %
28.10.2018 15:52 6,2 C 5,6 C 5,0 C 73 % 1012,8 hPa 0,0 l/m 0 min 0 min 50 W/m 12,9 km/h (3 Bft) 97,87 %
28.10.2018 15:54 6,2 C 5,6 C 5,0 C 73 % 1012,8 hPa 0,0 l/m 0 min 0 min 58 W/m 16,1 km/h (3 Bft) 97,83 %
28.10.2018 15:56 6,2 C 5,6 C 5,0 C 73 % 1012,8 hPa 0,0 l/m 0 min 0 min 74 W/m 16,1 km/h (3 Bft) 97,87 %
28.10.2018 15:58 6,1 C 5,6 C 5,0 C 73 % 1012,8 hPa 0,0 l/m 0 min 0 min 81 W/m 16,1 km/h (3 Bft) 97,87 %
28.10.2018 16:00 6,1 C 5,6 C 5,0 C 74 % 1012,7 hPa 0,0 l/m 2 min 0 min 91 W/m 22,5 km/h (4 Bft) 97,87 %
28.10.2018 16:02 6,1 C 5,6 C 5,0 C 73 % 1012,7 hPa 0,0 l/m 2 min 0 min 93 W/m 22,5 km/h (4 Bft) 97,87 %
28.10.2018 16:04 6,1 C 6,1 C 5,0 C 73 % 1012,8 hPa 0,0 l/m 2 min 0 min 99 W/m 12,9 km/h (3 Bft) 100,00 %
28.10.2018 16:08 6,1 C 6,1 C 5,0 C 73 % 1012,9 hPa 0,0 l/m 4 min 0 min 81 W/m 16,1 km/h (3 Bft) 98,92 %
28.10.2018 16:10 6,1 C 5,6 C 5,0 C 74 % 1012,7 hPa 0,0 l/m 0 min 0 min 53 W/m 16,1 km/h (3 Bft) 100,00 %
28.10.2018 16:12 6,1 C 5,6 C 5,0 C 74 % 1012,7 hPa 0,0 l/m 0 min 0 min 33 W/m 16,1 km/h (3 Bft) 100,00 %
28.10.2018 16:14 6,1 C 5,6 C 5,0 C 74 % 1012,6 hPa 0,0 l/m 0 min 0 min 29 W/m 12,9 km/h (3 Bft) 100,00 %
28.10.2018 16:16 6,1 C 5,6 C 5,0 C 74 % 1012,7 hPa 0,0 l/m 0 min 0 min 27 W/m 12,9 km/h (3 Bft) 100,00 %
28.10.2018 16:18 6,1 C 5,6 C 5,0 C 74 % 1012,6 hPa 0,0 l/m 0 min 0 min 28 W/m 25,7 km/h (4 Bft) 100,00 %
28.10.2018 16:20 6,1 C 5,6 C 5,0 C 74 % 1012,5 hPa 0,0 l/m 0 min 0 min 29 W/m 25,7 km/h (4 Bft) 97,87 %
28.10.2018 16:22 6,0 C 5,6 C 5,0 C 74 % 1012,5 hPa 0,0 l/m 0 min 0 min 32 W/m 12,9 km/h (3 Bft) 100,00 %
28.10.2018 16:24 6,0 C 5,6 C 5,0 C 74 % 1012,5 hPa 0,0 l/m 0 min 0 min 33 W/m 12,9 km/h (3 Bft) 100,00 %
28.10.2018 16:26 6,0 C 5,6 C 5,0 C 73 % 1012,6 hPa 0,0 l/m 0 min 0 min 32 W/m 19,3 km/h (3 Bft) 100,00 %
28.10.2018 16:28 6,0 C 5,6 C 5,0 C 73 % 1012,5 hPa 0,0 l/m 0 min 0 min 32 W/m 16,1 km/h (3 Bft) 100,00 %
28.10.2018 16:30 5,9 C 5,6 C 5,0 C 73 % 1012,5 hPa 0,0 l/m 0 min 0 min 32 W/m 16,1 km/h (3 Bft) 100,00 %
28.10.2018 16:32 5,9 C 5,6 C 5,0 C 73 % 1012,4 hPa 0,0 l/m 0 min 0 min 31 W/m 29,0 km/h (5 Bft) 100,00 %
28.10.2018 16:34 5,9 C 5,6 C 5,0 C 73 % 1012,4 hPa 0,0 l/m 0 min 0 min 34 W/m 32,2 km/h (5 Bft) 100,00 %
28.10.2018 16:38 5,9 C 5,6 C 5,0 C 74 % 1012,2 hPa 0,0 l/m 0 min 0 min 32 W/m 29,0 km/h (5 Bft) 100,00 %
28.10.2018 16:40 5,9 C 5,6 C 5,0 C 74 % 1012,1 hPa 0,0 l/m 0 min 0 min 28 W/m 22,5 km/h (4 Bft) 100,00 %
28.10.2018 16:42 5,9 C 5,6 C 5,0 C 74 % 1012,0 hPa 0,0 l/m 0 min 0 min 20 W/m 12,9 km/h (3 Bft) 97,83 %
28.10.2018 16:44 5,9 C 5,6 C 5,0 C 74 % 1012,0 hPa 0,0 l/m 0 min 0 min 16 W/m 12,9 km/h (3 Bft) 100,00 %
28.10.2018 16:46 5,9 C 5,6 C 5,0 C 74 % 1012,1 hPa 0,0 l/m 0 min 0 min 14 W/m 29,0 km/h (5 Bft) 100,00 %
28.10.2018 16:48 5,9 C 5,6 C 5,0 C 74 % 1012,1 hPa 0,0 l/m 0 min 0 min 12 W/m 22,5 km/h (4 Bft) 97,87 %
28.10.2018 16:50 5,8 C 5,6 C 5,0 C 74 % 1012,0 hPa 0,0 l/m 0 min 0 min 10 W/m 19,3 km/h (3 Bft) 95,74 %
28.10.2018 16:52 5,8 C 5,6 C 5,0 C 74 % 1012,1 hPa 0,0 l/m 0 min 0 min 8 W/m 32,2 km/h (5 Bft) 97,83 %
28.10.2018 16:54 5,8 C 5,6 C 5,0 C 73 % 1012,3 hPa 0,0 l/m 0 min 0 min 7 W/m 16,1 km/h (3 Bft) 97,87 %
28.10.2018 16:56 5,8 C 5,6 C 5,0 C 74 % 1012,5 hPa 0,0 l/m 0 min 0 min 7 W/m 12,9 km/h (3 Bft) 95,74 %
28.10.2018 16:58 5,8 C 5,6 C 5,0 C 74 % 1012,6 hPa 0,0 l/m 0 min 0 min 6 W/m 16,1 km/h (3 Bft) 95,74 %
28.10.2018 17:00 5,8 C 5,6 C 5,0 C 74 % 1012,7 hPa 0,0 l/m 0 min 0 min 5 W/m 16,1 km/h (3 Bft) 95,74 %
28.10.2018 17:02 5,8 C 5,6 C 5,0 C 74 % 1012,6 hPa 0,0 l/m 0 min 0 min 1 W/m 22,5 km/h (4 Bft) 97,87 %
28.10.2018 17:04 5,8 C 5,6 C 5,0 C 74 % 1012,7 hPa 0,0 l/m 0 min 0 min 0 W/m 32,2 km/h (5 Bft) 93,62 %
28.10.2018 17:08 5,8 C 5,6 C 5,0 C 74 % 1013,0 hPa 0,0 l/m 0 min 0 min 0 W/m 22,5 km/h (4 Bft) 95,70 %
28.10.2018 17:10 5,8 C 5,6 C 5,0 C 74 % 1013,2 hPa 0,0 l/m 0 min 0 min 0 W/m 19,3 km/h (3 Bft) 97,87 %
28.10.2018 17:12 5,8 C 5,6 C 5,0 C 74 % 1013,2 hPa 0,0 l/m 0 min 0 min 0 W/m 16,1 km/h (3 Bft) 97,87 %
28.10.2018 17:14 5,8 C 5,6 C 5,0 C 74 % 1013,2 hPa 0,0 l/m 0 min 0 min 0 W/m 16,1 km/h (3 Bft) 97,87 %
28.10.2018 17:16 5,8 C 5,0 C 5,0 C 74 % 1013,3 hPa 0,0 l/m 0 min 0 min 0 W/m 16,1 km/h (3 Bft) 97,87 %
28.10.2018 17:18 5,8 C 5,0 C 5,0 C 75 % 1013,3 hPa 0,0 l/m 0 min 0 min 0 W/m 12,9 km/h (3 Bft) 97,83 %
28.10.2018 17:20 5,8 C 5,0 C 5,0 C 75 % 1013,0 hPa 0,0 l/m 0 min 0 min 0 W/m 19,3 km/h (3 Bft) 97,87 %
28.10.2018 17:22 5,8 C 5,0 C 5,0 C 75 % 1012,8 hPa 0,0 l/m 0 min 0 min 0 W/m 16,1 km/h (3 Bft) 93,62 %
28.10.2018 17:24 5,8 C 5,0 C 5,0 C 75 % 1012,8 hPa 0,0 l/m 0 min 0 min 0 W/m 16,1 km/h (3 Bft) 95,74 %
28.10.2018 17:26 5,7 C 5,0 C 5,0 C 75 % 1012,8 hPa 0,0 l/m 0 min 0 min 0 W/m 25,7 km/h (4 Bft) 95,74 %
28.10.2018 17:28 5,7 C 5,0 C 5,0 C 75 % 1012,8 hPa 0,0 l/m 0 min 0 min 0 W/m 29,0 km/h (5 Bft) 97,83 %
28.10.2018 17:30 5,7 C 5,0 C 5,0 C 75 % 1012,8 hPa 0,0 l/m 0 min 0 min 0 W/m 22,5 km/h (4 Bft) 95,74 %
28.10.2018 17:32 5,7 C 5,0 C 5,0 C 75 % 1012,8 hPa 0,0 l/m 0 min 0 min 0 W/m 19,3 km/h (3 Bft) 93,62 %
28.10.2018 17:34 5,7 C 5,0 C 5,0 C 75 % 1012,7 hPa 0,0 l/m 0 min 0 min 0 W/m 19,3 km/h (3 Bft) 97,87 %
28.10.2018 17:38 5,7 C 5,0 C 5,0 C 75 % 1012,7 hPa 0,0 l/m 0 min 0 min 0 W/m 25,7 km/h (4 Bft) 98,94 %
28.10.2018 17:40 5,7 C 5,0 C 5,0 C 75 % 1012,9 hPa 0,0 l/m 0 min 0 min 0 W/m 12,9 km/h (3 Bft) 95,65 %
28.10.2018 17:42 5,7 C 5,0 C 5,0 C 75 % 1012,9 hPa 0,0 l/m 0 min 0 min 0 W/m 12,9 km/h (3 Bft) 95,74 %
28.10.2018 17:44 5,7 C 5,0 C 5,0 C 75 % 1012,9 hPa 0,0 l/m 0 min 0 min 0 W/m 29,0 km/h (5 Bft) 95,74 %
28.10.2018 17:46 5,7 C 5,0 C 5,0 C 75 % 1012,9 hPa 0,0 l/m 0 min 0 min 0 W/m 32,2 km/h (5 Bft) 97,87 %
28.10.2018 17:48 5,7 C 5,6 C 5,0 C 75 % 1012,9 hPa 0,0 l/m 0 min 0 min 0 W/m 22,5 km/h (4 Bft) 95,74 %
28.10.2018 17:50 5,7 C 5,6 C 5,0 C 75 % 1012,8 hPa 0,0 l/m 0 min 0 min 0 W/m 29,0 km/h (5 Bft) 97,87 %
28.10.2018 17:52 5,7 C 5,6 C 5,0 C 75 % 1012,8 hPa 0,0 l/m 0 min 0 min 0 W/m 25,7 km/h (4 Bft) 97,83 %
28.10.2018 17:54 5,7 C 5,6 C 5,0 C 75 % 1012,7 hPa 0,0 l/m 0 min 0 min 0 W/m 25,7 km/h (4 Bft) 95,74 %
28.10.2018 17:56 5,7 C 5,6 C 5,0 C 75 % 1012,6 hPa 0,0 l/m 0 min 0 min 0 W/m 16,1 km/h (3 Bft) 97,87 %
28.10.2018 17:58 5,7 C 5,6 C 5,0 C 75 % 1012,5 hPa 0,0 l/m 0 min 0 min 0 W/m 19,3 km/h (3 Bft) 97,87 %
28.10.2018 18:00 5,7 C 5,6 C 5,0 C 75 % 1012,6 hPa 0,0 l/m 0 min 0 min 0 W/m 19,3 km/h (3 Bft) 97,87 %
28.10.2018 18:02 5,7 C 5,0 C 5,0 C 75 % 1012,6 hPa 0,0 l/m 0 min 0 min 0 W/m 6,4 km/h (2 Bft) 93,62 %
28.10.2018 18:04 5,7 C 5,0 C 5,0 C 75 % 1012,7 hPa 0,0 l/m 0 min 0 min 0 W/m 16,1 km/h (3 Bft) 97,83 %
28.10.2018 18:08 5,7 C 5,0 C 5,0 C 75 % 1012,7 hPa 0,0 l/m 0 min 0 min 0 W/m 12,9 km/h (3 Bft) 95,74 %
28.10.2018 18:10 5,7 C 5,0 C 5,0 C 75 % 1012,7 hPa 0,0 l/m 0 min 0 min 0 W/m 25,7 km/h (4 Bft) 95,74 %
28.10.2018 18:12 5,7 C 5,0 C 5,0 C 76 % 1012,7 hPa 0,0 l/m 0 min 0 min 0 W/m 25,7 km/h (4 Bft) 95,74 %
28.10.2018 18:14 5,7 C 5,0 C 5,0 C 76 % 1012,6 hPa 0,0 l/m 0 min 0 min 0 W/m 9,7 km/h (2 Bft) 95,65 %
28.10.2018 18:16 5,7 C 5,0 C 5,0 C 76 % 1012,6 hPa 0,0 l/m 0 min 0 min 0 W/m 22,5 km/h (4 Bft) 93,62 %
28.10.2018 18:18 5,7 C 5,0 C 5,0 C 76 % 1012,6 hPa 0,0 l/m 0 min 0 min 0 W/m 22,5 km/h (4 Bft) 93,62 %
28.10.2018 18:20 5,7 C 5,0 C 5,0 C 76 % 1012,6 hPa 0,0 l/m 0 min 0 min 0 W/m 19,3 km/h (3 Bft) 93,62 %
28.10.2018 18:22 5,7 C 5,0 C 5,0 C 76 % 1012,6 hPa 0,0 l/m 0 min 0 min 0 W/m 9,7 km/h (2 Bft) 95,74 %
28.10.2018 18:24 5,7 C 5,0 C 5,0 C 76 % 1012,5 hPa 0,0 l/m 0 min 0 min 0 W/m 19,3 km/h (3 Bft) 93,62 %
28.10.2018 18:26 5,7 C 5,0 C 5,0 C 76 % 1012,5 hPa 0,0 l/m 0 min 0 min 0 W/m 38,6 km/h (5 Bft) 91,30 %
28.10.2018 18:28 5,7 C 5,0 C 5,0 C 76 % 1012,7 hPa 0,0 l/m 0 min 0 min 0 W/m 19,3 km/h (3 Bft) 97,87 %
28.10.2018 18:30 5,7 C 5,0 C 5,0 C 76 % 1012,6 hPa 0,0 l/m 0 min 0 min 0 W/m 29,0 km/h (5 Bft) 95,74 %
28.10.2018 18:32 5,7 C 5,0 C 5,0 C 75 % 1012,7 hPa 0,0 l/m 0 min 0 min 0 W/m 25,7 km/h (4 Bft) 97,87 %
28.10.2018 18:34 5,7 C 5,0 C 5,0 C 75 % 1012,7 hPa 0,0 l/m 0 min 0 min 0 W/m 12,9 km/h (3 Bft) 97,87 %
28.10.2018 18:38 5,7 C 5,0 C 5,0 C 75 % 1012,9 hPa 0,0 l/m 0 min 0 min 0 W/m 19,3 km/h (3 Bft) 97,83 %
28.10.2018 18:40 5,7 C 5,0 C 5,0 C 76 % 1012,9 hPa 0,0 l/m 0 min 0 min 0 W/m 12,9 km/h (3 Bft) 97,87 %
28.10.2018 18:42 5,7 C 5,0 C 5,0 C 76 % 1012,9 hPa 0,0 l/m 0 min 0 min 0 W/m 12,9 km/h (3 Bft) 95,74 %
28.10.2018 18:44 5,7 C 5,0 C 5,0 C 76 % 1012,9 hPa 0,0 l/m 0 min 0 min 0 W/m 19,3 km/h (3 Bft) 95,74 %
28.10.2018 18:46 5,7 C 5,0 C 5,0 C 75 % 1012,8 hPa 0,0 l/m 0 min 0 min 0 W/m 12,9 km/h (3 Bft) 97,87 %
28.10.2018 18:48 5,7 C 5,0 C 5,0 C 75 % 1012,7 hPa 0,0 l/m 0 min 0 min 0 W/m 16,1 km/h (3 Bft) 97,87 %
28.10.2018 18:50 5,7 C 5,0 C 5,0 C 75 % 1012,7 hPa 0,0 l/m 0 min 0 min 0 W/m 25,7 km/h (4 Bft) 97,83 %
28.10.2018 18:52 5,7 C 5,0 C 5,0 C 75 % 1012,7 hPa 0,0 l/m 0 min 0 min 0 W/m 16,1 km/h (3 Bft) 97,87 %
28.10.2018 18:54 5,7 C 5,0 C 5,0 C 75 % 1012,7 hPa 0,0 l/m 0 min 0 min 0 W/m 32,2 km/h (5 Bft) 97,87 %
28.10.2018 18:56 5,7 C 5,0 C 5,0 C 76 % 1012,8 hPa 0,0 l/m 0 min 0 min 0 W/m 19,3 km/h (3 Bft) 97,87 %
28.10.2018 18:58 5,7 C 5,0 C 5,0 C 76 % 1012,8 hPa 0,0 l/m 0 min 0 min 0 W/m 12,9 km/h (3 Bft) 93,62 %
28.10.2018 19:00 5,7 C 5,0 C 5,0 C 76 % 1012,7 hPa 0,0 l/m 0 min 0 min 0 W/m 12,9 km/h (3 Bft) 95,74 %
28.10.2018 19:02 5,7 C 5,0 C 5,0 C 76 % 1012,6 hPa 0,0 l/m 0 min 0 min 0 W/m 16,1 km/h (3 Bft) 97,83 %
28.10.2018 19:04 5,7 C 5,0 C 5,0 C 76 % 1012,5 hPa 0,0 l/m 0 min 0 min 0 W/m 6,4 km/h (2 Bft) 97,87 %
28.10.2018 19:08 5,6 C 5,0 C 5,0 C 76 % 1012,4 hPa 0,0 l/m 0 min 0 min 0 W/m 19,3 km/h (3 Bft) 96,81 %
28.10.2018 19:10 5,6 C 5,0 C 5,0 C 76 % 1012,4 hPa 0,0 l/m 0 min 0 min 0 W/m 9,7 km/h (2 Bft) 97,87 %
28.10.2018 19:12 5,6 C 5,0 C 5,0 C 76 % 1012,3 hPa 0,0 l/m 0 min 0 min 0 W/m 12,9 km/h (3 Bft) 97,83 %
28.10.2018 19:14 5,6 C 5,0 C 5,0 C 76 % 1012,3 hPa 0,0 l/m 0 min 0 min 0 W/m 16,1 km/h (3 Bft) 95,74 %
28.10.2018 19:16 5,6 C 5,0 C 4,4 C 76 % 1012,3 hPa 0,0 l/m 0 min 0 min 0 W/m 19,3 km/h (3 Bft) 100,00 %
28.10.2018 19:18 5,6 C 5,0 C 4,4 C 77 % 1012,3 hPa 0,0 l/m 0 min 0 min 0 W/m 19,3 km/h (3 Bft) 100,00 %
28.10.2018 19:20 5,6 C 5,0 C 4,4 C 77 % 1012,2 hPa 0,0 l/m 0 min 0 min 0 W/m 16,1 km/h (3 Bft) 95,74 %
28.10.2018 19:22 5,6 C 5,0 C 4,4 C 77 % 1012,3 hPa 0,0 l/m 0 min 0 min 0 W/m 9,7 km/h (2 Bft) 97,87 %
28.10.2018 19:24 5,6 C 5,0 C 4,4 C 77 % 1012,3 hPa 0,0 l/m 0 min 0 min 0 W/m 9,7 km/h (2 Bft) 100,00 %
28.10.2018 19:26 5,6 C 5,0 C 4,4 C 77 % 1012,3 hPa 0,0 l/m 0 min 0 min 0 W/m 16,1 km/h (3 Bft) 97,83 %
28.10.2018 19:28 5,6 C 5,0 C 4,4 C 77 % 1012,3 hPa 0,0 l/m 0 min 0 min 0 W/m 16,1 km/h (3 Bft) 100,00 %
28.10.2018 19:30 5,5 C 5,0 C 4,4 C 77 % 1012,3 hPa 0,0 l/m 0 min 0 min 0 W/m 16,1 km/h (3 Bft) 100,00 %
28.10.2018 19:32 5,5 C 5,0 C 4,4 C 77 % 1012,3 hPa 0,0 l/m 0 min 0 min 0 W/m 16,1 km/h (3 Bft) 97,87 %
28.10.2018 19:34 5,5 C 5,0 C 4,4 C 77 % 1012,3 hPa 0,0 l/m 0 min 0 min 0 W/m 25,7 km/h (4 Bft) 100,00 %
28.10.2018 19:38 5,5 C 5,0 C 4,4 C 77 % 1012,2 hPa 0,0 l/m 0 min 0 min 0 W/m 25,7 km/h (4 Bft) 97,85 %
28.10.2018 19:40 5,5 C 5,0 C 4,4 C 77 % 1012,3 hPa 0,0 l/m 0 min 0 min 0 W/m 16,1 km/h (3 Bft) 95,74 %
28.10.2018 19:42 5,5 C 5,0 C 4,4 C 78 % 1012,3 hPa 0,0 l/m 0 min 0 min 0 W/m 19,3 km/h (3 Bft) 91,49 %
28.10.2018 19:44 5,5 C 5,0 C 4,4 C 78 % 1012,4 hPa 0,0 l/m 0 min 0 min 0 W/m 25,7 km/h (4 Bft) 97,87 %
28.10.2018 19:46 5,5 C 5,0 C 4,4 C 78 % 1012,4 hPa 0,0 l/m 0 min 0 min 0 W/m 19,3 km/h (3 Bft) 95,74 %
28.10.2018 19:48 5,5 C 5,0 C 4,4 C 78 % 1012,4 hPa 0,0 l/m 0 min 0 min 0 W/m 22,5 km/h (4 Bft) 97,83 %
28.10.2018 19:50 5,4 C 5,0 C 4,4 C 78 % 1012,3 hPa 0,0 l/m 0 min 0 min 0 W/m 16,1 km/h (3 Bft) 97,87 %
28.10.2018 19:52 5,4 C 5,0 C 4,4 C 78 % 1012,3 hPa 0,0 l/m 0 min 0 min 0 W/m 16,1 km/h (3 Bft) 97,87 %
28.10.2018 19:54 5,4 C 5,0 C 4,4 C 78 % 1012,3 hPa 0,0 l/m 0 min 0 min 0 W/m 16,1 km/h (3 Bft) 97,87 %
28.10.2018 19:56 5,4 C 5,0 C 4,4 C 78 % 1012,3 hPa 0,0 l/m 0 min 0 min 0 W/m 19,3 km/h (3 Bft) 91,49 %
28.10.2018 19:58 5,4 C 5,0 C 4,4 C 78 % 1012,3 hPa 0,0 l/m 0 min 0 min 0 W/m 19,3 km/h (3 Bft) 97,87 %
28.10.2018 20:00 5,4 C 5,0 C 4,4 C 78 % 1012,3 hPa 0,0 l/m 0 min 0 min 0 W/m 9,7 km/h (2 Bft) 93,48 %
28.10.2018 20:02 5,4 C 5,0 C 4,4 C 78 % 1012,3 hPa 0,0 l/m 0 min 0 min 0 W/m 12,9 km/h (3 Bft) 95,74 %
28.10.2018 20:04 5,4 C 5,0 C 4,4 C 78 % 1012,4 hPa 0,0 l/m 0 min 0 min 0 W/m 22,5 km/h (4 Bft) 91,49 %
28.10.2018 20:08 5,4 C 5,0 C 4,4 C 79 % 1012,2 hPa 0,0 l/m 0 min 0 min 0 W/m 9,7 km/h (2 Bft) 95,74 %
28.10.2018 20:10 5,4 C 5,0 C 4,4 C 79 % 1012,2 hPa 0,0 l/m 0 min 0 min 0 W/m 9,7 km/h (2 Bft) 95,74 %
28.10.2018 20:12 5,4 C 5,0 C 4,4 C 79 % 1012,0 hPa 0,0 l/m 0 min 0 min 0 W/m 16,1 km/h (3 Bft) 95,65 %
28.10.2018 20:14 5,4 C 5,0 C 4,4 C 79 % 1011,9 hPa 0,0 l/m 0 min 0 min 0 W/m 12,9 km/h (3 Bft) 95,74 %
28.10.2018 20:16 5,4 C 5,0 C 4,4 C 79 % 1011,9 hPa 0,0 l/m 0 min 0 min 0 W/m 9,7 km/h (2 Bft) 95,74 %
28.10.2018 20:18 5,4 C 5,0 C 4,4 C 79 % 1012,0 hPa 0,0 l/m 0 min 0 min 0 W/m 22,5 km/h (4 Bft) 93,62 %
28.10.2018 20:20 5,4 C 5,0 C 4,4 C 79 % 1012,1 hPa 0,0 l/m 0 min 0 min 0 W/m 16,1 km/h (3 Bft) 95,74 %
28.10.2018 20:22 5,4 C 5,0 C 4,4 C 79 % 1012,1 hPa 0,0 l/m 0 min 0 min 0 W/m 12,9 km/h (3 Bft) 95,74 %
28.10.2018 20:24 5,4 C 5,0 C 4,4 C 79 % 1012,1 hPa 0,0 l/m 0 min 0 min 0 W/m 9,7 km/h (2 Bft) 95,65 %
28.10.2018 20:26 5,3 C 5,0 C 4,4 C 79 % 1012,1 hPa 0,0 l/m 0 min 0 min 0 W/m 25,7 km/h (4 Bft) 95,74 %
28.10.2018 20:28 5,4 C 5,0 C 4,4 C 79 % 1012,2 hPa 0,0 l/m 0 min 0 min 0 W/m 12,9 km/h (3 Bft) 97,87 %
28.10.2018 20:30 5,3 C 5,0 C 4,4 C 79 % 1012,2 hPa 0,0 l/m 0 min 0 min 0 W/m 16,1 km/h (3 Bft) 97,87 %
28.10.2018 20:32 5,3 C 5,0 C 4,4 C 79 % 1012,2 hPa 0,0 l/m 0 min 0 min 0 W/m 9,7 km/h (2 Bft) 97,87 %
28.10.2018 20:34 5,3 C 5,0 C 4,4 C 79 % 1012,2 hPa 0,0 l/m 0 min 0 min 0 W/m 19,3 km/h (3 Bft) 95,65 %
28.10.2018 20:38 5,3 C 5,0 C 4,4 C 79 % 1012,2 hPa 0,0 l/m 0 min 0 min 0 W/m 19,3 km/h (3 Bft) 96,81 %
28.10.2018 20:40 5,3 C 5,0 C 4,4 C 80 % 1012,1 hPa 0,0 l/m 0 min 0 min 0 W/m 16,1 km/h (3 Bft) 97,87 %
28.10.2018 20:42 5,3 C 5,0 C 4,4 C 80 % 1012,0 hPa 0,0 l/m 0 min 0 min 0 W/m 6,4 km/h (2 Bft) 97,87 %
28.10.2018 20:44 5,3 C 5,0 C 4,4 C 79 % 1012,0 hPa 0,0 l/m 0 min 0 min 0 W/m 16,1 km/h (3 Bft) 95,74 %
28.10.2018 20:46 5,3 C 5,0 C 4,4 C 80 % 1012,1 hPa 0,0 l/m 0 min 0 min 0 W/m 16,1 km/h (3 Bft) 97,83 %
28.10.2018 20:48 5,3 C 5,0 C 4,4 C 80 % 1012,1 hPa 0,0 l/m 0 min 0 min 0 W/m 19,3 km/h (3 Bft) 97,87 %
28.10.2018 20:50 5,3 C 5,0 C 4,4 C 80 % 1011,9 hPa 0,0 l/m 0 min 0 min 0 W/m 16,1 km/h (3 Bft) 95,74 %
28.10.2018 20:52 5,3 C 5,0 C 4,4 C 80 % 1011,9 hPa 0,0 l/m 0 min 0 min 0 W/m 12,9 km/h (3 Bft) 97,87 %
28.10.2018 20:54 5,3 C 5,0 C 4,4 C 80 % 1011,8 hPa 0,0 l/m 0 min 0 min 0 W/m 22,5 km/h (4 Bft) 100,00 %
28.10.2018 20:56 5,3 C 5,0 C 4,4 C 80 % 1011,8 hPa 0,0 l/m 0 min 0 min 0 W/m 22,5 km/h (4 Bft) 100,00 %
28.10.2018 20:58 5,3 C 5,0 C 4,4 C 80 % 1011,9 hPa 0,0 l/m 0 min 0 min 0 W/m 9,7 km/h (2 Bft) 100,00 %
28.10.2018 21:00 5,3 C 5,0 C 4,4 C 80 % 1011,8 hPa 0,0 l/m 0 min 0 min 0 W/m 16,1 km/h (3 Bft) 93,62 %
28.10.2018 21:02 5,3 C 5,0 C 4,4 C 80 % 1011,9 hPa 0,0 l/m 0 min 0 min 0 W/m 12,9 km/h (3 Bft) 97,87 %
28.10.2018 21:04 5,3 C 5,0 C 4,4 C 80 % 1011,9 hPa 0,0 l/m 0 min 0 min 0 W/m 22,5 km/h (4 Bft) 100,00 %
28.10.2018 21:08 5,3 C 5,0 C 4,4 C 80 % 1011,9 hPa 0,0 l/m 0 min 0 min 0 W/m 32,2 km/h (5 Bft) 100,00 %
28.10.2018 21:10 5,3 C 5,0 C 4,4 C 80 % 1011,9 hPa 0,0 l/m 0 min 0 min 0 W/m 16,1 km/h (3 Bft) 97,83 %
28.10.2018 21:12 5,3 C 5,0 C 4,4 C 81 % 1011,9 hPa 0,0 l/m 0 min 0 min 0 W/m 12,9 km/h (3 Bft) 100,00 %
28.10.2018 21:14 5,3 C 5,0 C 4,4 C 81 % 1011,9 hPa 0,0 l/m 0 min 0 min 0 W/m 12,9 km/h (3 Bft) 100,00 %
28.10.2018 21:16 5,3 C 5,0 C 4,4 C 81 % 1011,9 hPa 0,0 l/m 0 min 0 min 0 W/m 16,1 km/h (3 Bft) 100,00 %
28.10.2018 21:18 5,3 C 5,0 C 4,4 C 81 % 1011,7 hPa 0,0 l/m 0 min 0 min 0 W/m 12,9 km/h (3 Bft) 97,87 %
28.10.2018 21:20 5,3 C 4,4 C 4,4 C 81 % 1011,6 hPa 0,0 l/m 0 min 0 min 0 W/m 12,9 km/h (3 Bft) 97,87 %
28.10.2018 21:22 5,3 C 4,4 C 4,4 C 81 % 1011,6 hPa 0,0 l/m 0 min 0 min 0 W/m 16,1 km/h (3 Bft) 100,00 %
28.10.2018 21:24 5,3 C 4,4 C 4,4 C 81 % 1011,5 hPa 0,0 l/m 0 min 0 min 0 W/m 12,9 km/h (3 Bft) 100,00 %
28.10.2018 21:26 5,3 C 4,4 C 4,4 C 81 % 1011,5 hPa 0,0 l/m 0 min 0 min 0 W/m 6,4 km/h (2 Bft) 100,00 %
28.10.2018 21:28 5,3 C 4,4 C 4,4 C 81 % 1011,5 hPa 0,0 l/m 0 min 0 min 0 W/m 16,1 km/h (3 Bft) 97,87 %
28.10.2018 21:30 5,2 C 4,4 C 4,4 C 81 % 1011,7 hPa 0,0 l/m 0 min 0 min 0 W/m 16,1 km/h (3 Bft) 100,00 %
28.10.2018 21:32 5,2 C 4,4 C 4,4 C 81 % 1011,6 hPa 0,0 l/m 0 min 0 min 0 W/m 16,1 km/h (3 Bft) 100,00 %
28.10.2018 21:34 5,2 C 4,4 C 4,4 C 81 % 1011,7 hPa 0,0 l/m 0 min 0 min 0 W/m 12,9 km/h (3 Bft) 100,00 %
28.10.2018 21:38 5,2 C 4,4 C 4,4 C 81 % 1011,6 hPa 0,0 l/m 0 min 0 min 0 W/m 16,1 km/h (3 Bft) 100,00 %
28.10.2018 21:40 5,2 C 4,4 C 4,4 C 81 % 1011,7 hPa 0,0 l/m 0 min 0 min 0 W/m 12,9 km/h (3 Bft) 100,00 %
28.10.2018 21:42 5,2 C 4,4 C 4,4 C 82 % 1011,7 hPa 0,0 l/m 0 min 0 min 0 W/m 6,4 km/h (2 Bft) 100,00 %
28.10.2018 21:44 5,2 C 4,4 C 4,4 C 82 % 1011,7 hPa 0,0 l/m 0 min 0 min 0 W/m 12,9 km/h (3 Bft) 100,00 %
28.10.2018 21:46 5,2 C 4,4 C 4,4 C 82 % 1011,8 hPa 0,0 l/m 0 min 0 min 0 W/m 16,1 km/h (3 Bft) 100,00 %
28.10.2018 21:48 5,2 C 4,4 C 4,4 C 82 % 1011,7 hPa 0,0 l/m 0 min 0 min 0 W/m 9,7 km/h (2 Bft) 100,00 %
28.10.2018 21:50 5,2 C 4,4 C 4,4 C 82 % 1011,5 hPa 0,0 l/m 0 min 0 min 0 W/m 16,1 km/h (3 Bft) 100,00 %
28.10.2018 21:52 5,2 C 4,4 C 4,4 C 82 % 1011,4 hPa 0,0 l/m 0 min 0 min 0 W/m 12,9 km/h (3 Bft) 100,00 %
28.10.2018 21:54 5,2 C 4,4 C 4,4 C 82 % 1011,4 hPa 0,0 l/m 0 min 0 min 0 W/m 16,1 km/h (3 Bft) 100,00 %
28.10.2018 21:56 5,1 C 4,4 C 4,4 C 82 % 1011,4 hPa 0,0 l/m 0 min 0 min 0 W/m 12,9 km/h (3 Bft) 100,00 %
28.10.2018 21:58 5,1 C 4,4 C 4,4 C 82 % 1011,4 hPa 0,0 l/m 0 min 0 min 0 W/m 9,7 km/h (2 Bft) 100,00 %
28.10.2018 22:00 5,1 C 4,4 C 4,4 C 82 % 1011,4 hPa 0,0 l/m 0 min 0 min 0 W/m 22,5 km/h (4 Bft) 100,00 %
28.10.2018 22:02 5,1 C 4,4 C 4,4 C 82 % 1011,4 hPa 0,0 l/m 0 min 0 min 0 W/m 12,9 km/h (3 Bft) 100,00 %
28.10.2018 22:04 5,1 C 4,4 C 4,4 C 82 % 1011,4 hPa 0,0 l/m 0 min 0 min 0 W/m 9,7 km/h (2 Bft) 100,00 %
28.10.2018 22:08 5,1 C 4,4 C 4,4 C 83 % 1011,3 hPa 0,0 l/m 0 min 0 min 0 W/m 25,7 km/h (4 Bft) 98,92 %
28.10.2018 22:10 5,1 C 4,4 C 4,4 C 83 % 1011,3 hPa 0,0 l/m 0 min 0 min 0 W/m 25,7 km/h (4 Bft) 97,87 %
28.10.2018 22:12 5,1 C 4,4 C 4,4 C 83 % 1011,2 hPa 0,0 l/m 0 min 0 min 0 W/m 16,1 km/h (3 Bft) 95,74 %
28.10.2018 22:14 5,1 C 4,4 C 4,4 C 83 % 1011,2 hPa 0,0 l/m 0 min 0 min 0 W/m 12,9 km/h (3 Bft) 95,74 %
28.10.2018 22:16 5,1 C 4,4 C 4,4 C 83 % 1011,1 hPa 0,0 l/m 0 min 0 min 0 W/m 9,7 km/h (2 Bft) 95,74 %
28.10.2018 22:18 5,1 C 4,4 C 4,4 C 83 % 1011,1 hPa 0,0 l/m 0 min 0 min 0 W/m 16,1 km/h (3 Bft) 95,74 %
28.10.2018 22:20 5,1 C 4,4 C 4,4 C 83 % 1011,1 hPa 0,0 l/m 0 min 0 min 0 W/m 16,1 km/h (3 Bft) 95,65 %
28.10.2018 22:22 5,1 C 4,4 C 4,4 C 83 % 1011,1 hPa 0,0 l/m 0 min 0 min 0 W/m 9,7 km/h (2 Bft) 97,87 %
28.10.2018 22:24 5,1 C 4,4 C 4,4 C 83 % 1011,1 hPa 0,0 l/m 0 min 0 min 0 W/m 9,7 km/h (2 Bft) 95,74 %
28.10.2018 22:26 5,1 C 4,4 C 4,4 C 83 % 1011,0 hPa 0,0 l/m 0 min 0 min 0 W/m 12,9 km/h (3 Bft) 93,62 %
28.10.2018 22:28 5,1 C 4,4 C 4,4 C 84 % 1011,0 hPa 0,0 l/m 0 min 0 min 0 W/m 9,7 km/h (2 Bft) 95,74 %
28.10.2018 22:30 5,1 C 4,4 C 4,4 C 83 % 1011,0 hPa 0,0 l/m 0 min 0 min 0 W/m 9,7 km/h (2 Bft) 93,62 %
28.10.2018 22:32 5,1 C 4,4 C 4,4 C 83 % 1011,0 hPa 0,0 l/m 0 min 0 min 0 W/m 9,7 km/h (2 Bft) 95,65 %
28.10.2018 22:34 5,1 C 4,4 C 4,4 C 84 % 1011,0 hPa 0,0 l/m 0 min 0 min 0 W/m 16,1 km/h (3 Bft) 93,62 %
28.10.2018 22:38 5,1 C 4,4 C 4,4 C 84 % 1010,8 hPa 0,0 l/m 0 min 0 min 0 W/m 12,9 km/h (3 Bft) 92,55 %
28.10.2018 22:40 5,1 C 4,4 C 4,4 C 84 % 1010,8 hPa 0,0 l/m 0 min 0 min 0 W/m 9,7 km/h (2 Bft) 93,62 %
28.10.2018 22:42 5,0 C 4,4 C 4,4 C 84 % 1010,9 hPa 0,0 l/m 0 min 0 min 0 W/m 12,9 km/h (3 Bft) 93,48 %
28.10.2018 22:44 5,0 C 4,4 C 4,4 C 84 % 1010,8 hPa 0,0 l/m 0 min 0 min 0 W/m 19,3 km/h (3 Bft) 93,62 %
28.10.2018 22:46 5,0 C 4,4 C 4,4 C 84 % 1010,9 hPa 0,0 l/m 0 min 0 min 0 W/m 9,7 km/h (2 Bft) 93,62 %
28.10.2018 22:48 5,0 C 4,4 C 4,4 C 84 % 1010,8 hPa 0,0 l/m 0 min 0 min 0 W/m 16,1 km/h (3 Bft) 89,36 %
28.10.2018 22:50 5,0 C 4,4 C 4,4 C 84 % 1010,8 hPa 0,0 l/m 0 min 0 min 0 W/m 9,7 km/h (2 Bft) 93,62 %
28.10.2018 22:52 5,0 C 4,4 C 4,4 C 84 % 1010,8 hPa 0,0 l/m 0 min 0 min 0 W/m 29,0 km/h (5 Bft) 93,62 %
28.10.2018 22:54 5,0 C 4,4 C 4,4 C 84 % 1010,8 hPa 0,0 l/m 0 min 0 min 0 W/m 25,7 km/h (4 Bft) 91,30 %
28.10.2018 22:56 5,0 C 4,4 C 4,4 C 84 % 1010,8 hPa 0,0 l/m 0 min 0 min 0 W/m 12,9 km/h (3 Bft) 93,62 %
28.10.2018 22:58 5,0 C 4,4 C 4,4 C 84 % 1010,8 hPa 0,0 l/m 0 min 0 min 0 W/m 12,9 km/h (3 Bft) 93,62 %
28.10.2018 23:00 5,0 C 4,4 C 4,4 C 85 % 1010,8 hPa 0,0 l/m 0 min 0 min 0 W/m 22,5 km/h (4 Bft) 93,62 %
28.10.2018 23:02 5,0 C 4,4 C 4,4 C 85 % 1010,7 hPa 0,0 l/m 0 min 0 min 0 W/m 9,7 km/h (2 Bft) 93,62 %
28.10.2018 23:04 5,0 C 4,4 C 4,4 C 85 % 1010,6 hPa 0,0 l/m 0 min 0 min 0 W/m 9,7 km/h (2 Bft) 93,62 %
28.10.2018 23:08 5,0 C 4,4 C 4,4 C 85 % 1010,5 hPa 0,0 l/m 0 min 0 min 0 W/m 16,1 km/h (3 Bft) 93,55 %
28.10.2018 23:10 5,0 C 4,4 C 4,4 C 85 % 1010,4 hPa 0,0 l/m 0 min 0 min 0 W/m 9,7 km/h (2 Bft) 93,62 %
28.10.2018 23:12 5,0 C 4,4 C 4,4 C 85 % 1010,5 hPa 0,0 l/m 0 min 0 min 0 W/m 16,1 km/h (3 Bft) 89,36 %
28.10.2018 23:14 5,0 C 4,4 C 4,4 C 85 % 1010,4 hPa 0,0 l/m 0 min 0 min 0 W/m 29,0 km/h (5 Bft) 91,49 %
28.10.2018 23:16 5,0 C 4,4 C 4,4 C 85 % 1010,3 hPa 0,0 l/m 0 min 0 min 0 W/m 19,3 km/h (3 Bft) 93,62 %
28.10.2018 23:18 5,0 C 4,4 C 4,4 C 85 % 1010,2 hPa 0,0 l/m 0 min 0 min 0 W/m 25,7 km/h (4 Bft) 97,83 %
28.10.2018 23:20 5,0 C 4,4 C 4,4 C 85 % 1010,1 hPa 0,0 l/m 0 min 0 min 0 W/m 22,5 km/h (4 Bft) 100,00 %
28.10.2018 23:22 5,0 C 4,4 C 4,4 C 85 % 1010,1 hPa 0,0 l/m 0 min 0 min 0 W/m 12,9 km/h (3 Bft) 100,00 %
28.10.2018 23:24 5,0 C 4,4 C 4,4 C 85 % 1010,1 hPa 0,0 l/m 0 min 0 min 0 W/m 16,1 km/h (3 Bft) 97,87 %
28.10.2018 23:26 5,0 C 4,4 C 4,4 C 85 % 1010,2 hPa 0,0 l/m 0 min 0 min 0 W/m 16,1 km/h (3 Bft) 97,87 %
28.10.2018 23:28 5,0 C 4,4 C 4,4 C 85 % 1010,1 hPa 0,0 l/m 0 min 0 min 0 W/m 25,7 km/h (4 Bft) 100,00 %
28.10.2018 23:30 5,0 C 4,4 C 4,4 C 85 % 1010,1 hPa 0,0 l/m 0 min 0 min 0 W/m 19,3 km/h (3 Bft) 100,00 %
28.10.2018 23:32 5,0 C 4,4 C 4,4 C 85 % 1010,0 hPa 0,0 l/m 0 min 0 min 0 W/m 22,5 km/h (4 Bft) 97,87 %
28.10.2018 23:34 5,0 C 4,4 C 4,4 C 85 % 1009,9 hPa 0,0 l/m 0 min 0 min 0 W/m 22,5 km/h (4 Bft) 95,74 %
28.10.2018 23:38 5,0 C 4,4 C 4,4 C 85 % 1009,7 hPa 0,0 l/m 0 min 0 min 0 W/m 22,5 km/h (4 Bft) 100,00 %
28.10.2018 23:40 5,0 C 4,4 C 4,4 C 85 % 1009,6 hPa 0,0 l/m 0 min 0 min 0 W/m 25,7 km/h (4 Bft) 100,00 %
28.10.2018 23:42 5,0 C 4,4 C 4,4 C 85 % 1009,5 hPa 0,0 l/m 0 min 0 min 0 W/m 22,5 km/h (4 Bft) 100,00 %
28.10.2018 23:44 5,0 C 4,4 C 4,4 C 85 % 1009,5 hPa 0,0 l/m 0 min 0 min 0 W/m 19,3 km/h (3 Bft) 97,87 %
28.10.2018 23:46 5,0 C 4,4 C 4,4 C 85 % 1009,5 hPa 0,0 l/m 0 min 0 min 0 W/m 25,7 km/h (4 Bft) 100,00 %
28.10.2018 23:48 5,0 C 4,4 C 4,4 C 85 % 1009,5 hPa 0,0 l/m 0 min 0 min 0 W/m 16,1 km/h (3 Bft) 100,00 %
28.10.2018 23:50 5,0 C 4,4 C 4,4 C 85 % 1009,3 hPa 0,0 l/m 0 min 0 min 0 W/m 9,7 km/h (2 Bft) 100,00 %
28.10.2018 23:52 5,0 C 4,4 C 4,4 C 85 % 1009,3 hPa 0,0 l/m 0 min 0 min 0 W/m 25,7 km/h (4 Bft) 100,00 %
28.10.2018 23:54 5,0 C 4,4 C 4,4 C 85 % 1009,3 hPa 0,0 l/m 0 min 0 min 0 W/m 19,3 km/h (3 Bft) 100,00 %
28.10.2018 23:56 5,0 C 4,4 C 4,4 C 85 % 1009,3 hPa 0,0 l/m 0 min 0 min 0 W/m 16,1 km/h (3 Bft) 100,00 %
28.10.2018 23:58 5,0 C 4,4 C 4,4 C 85 % 1009,1 hPa 0,0 l/m 0 min 0 min 0 W/m 29,0 km/h (5 Bft) 97,87 %
_ Min-Zeit 07:48 04:22 03:50 14:50 23:58 - - - - 00:00 06:30
Minimum _ 2,4 C 1,7 C 2,2 C 71 % 1009,1 hPa - - - - 0,0 km/h (0 Bft) 83,67 %
_ Max-Zeit 14:38 13:22 14:38 01:26 11:08 01:44 11:38 00:00 14:40 14:24 00:48
Maximum _ 6,8 C 7,2 C 6,1 C 95 % 1013,7 hPa 0,2 l/m 4 min 0 min 376 W/m 51,5 km/h
O (7 Bft)
100,00 %
Durchschnitt _ 4,7 C 4,4 C 4,0 C 86 % 1012,3 hPa #0,2 l/m #2:34 h #0 min. 142 W/m 16,0 km/h (3 Bft) 97,03 %
© 2018 W. Hausmann